GIA089 EHAM-WIII

Flight info

Callsign GIA089
Flight time 13h 20m
Altitude 29000
Route ARNEM L620 BIRKA Z21 OMELO DCT EVIKU DCT ODNEM DCT ERGOM DCT DEGET DCT RIXEN/N0487F310 UL605 YAVRU UL615 ERZ UT309 VIRAN UW27 KAR UT165 REBLO M11 LUSAL N199 RASAM L88 METKA B143 KRS B701 TUGTA A909 BABUM A477 AKRAM R226 MANAT/K0909F330 Z777 INDUD M875 AMDAR/N0492F330 M875 KHOLM DCT 3532N06818E 3425N06902E 3403N06952E DCT LAJAK L509 HANGU J139 NONIB L509 INDEK J121 AKBER T400 SULOM L509 ASARI J24 DPN L759 KKJ W138 RRP W66 VVZ L301 DOGEM L510 BIDEX/N0491F350 L510 GIVAL P628 VPL W531 VIH A464 VKL Y507 MAKNA Y511 TOPOR A464 ARAMA P501 POSOG B469 BIDAK
Aircraft B77W/H-SDE1E2E3FGHIJ2J3J4J5M1RWXY/LB1D1

Departure

Time 2026-04-30 08:38
Airport Amsterdam Airport Schiphol (EHAM)

Arrival

Time 2026-04-30 21:58
Airport Soekarno-Hatta International Airport (WIII)
Time Latitude Longitude Altitude Speed Heading
2026-04-30 08:05 52.31154 4.75588 4 ft 0 kts 86°
2026-04-30 08:25 52.31154 4.75573 3 ft 4 kts 85°
2026-04-30 08:25 52.31150 4.75529 3 ft 4 kts 76°
2026-04-30 08:25 52.31142 4.75487 3 ft 4 kts 66°
2026-04-30 08:26 52.31130 4.75449 3 ft 3 kts 57°
2026-04-30 08:26 52.31139 4.75459 3 ft 4 kts 29°
2026-04-30 08:26 52.31165 4.75466 3 ft 4 kts
2026-04-30 08:26 52.31192 4.75464 3 ft 4 kts 357°
2026-04-30 08:27 52.31219 4.75461 3 ft 4 kts 356°
2026-04-30 08:27 52.31246 4.75458 3 ft 4 kts 356°
2026-04-30 08:27 52.31273 4.75455 3 ft 4 kts 356°
2026-04-30 08:27 52.31300 4.75453 3 ft 4 kts 356°
2026-04-30 08:28 52.31307 4.75452 3 ft 0 kts 357°
2026-04-30 08:32 52.31325 4.75450 3 ft 9 kts 357°
2026-04-30 08:32 52.31407 4.75459 4 ft 12 kts 32°
2026-04-30 08:32 52.31431 4.75588 4 ft 12 kts 86°
2026-04-30 08:33 52.31436 4.75721 4 ft 13 kts 86°
2026-04-30 08:33 52.31443 4.75898 4 ft 18 kts 86°
2026-04-30 08:33 52.31450 4.76106 4 ft 18 kts 87°
2026-04-30 08:33 52.31457 4.76314 4 ft 18 kts 86°
2026-04-30 08:34 52.31465 4.76521 4 ft 18 kts 87°
2026-04-30 08:34 52.31472 4.76729 4 ft 18 kts 87°
2026-04-30 08:34 52.31479 4.76937 4 ft 18 kts 86°
2026-04-30 08:34 52.31485 4.77129 4 ft 9 kts 85°
2026-04-30 08:35 52.31526 4.77191 3 ft 9 kts 10°
2026-04-30 08:35 52.31569 4.77248 3 ft 9 kts 76°
2026-04-30 08:35 52.31595 4.77345 3 ft 11 kts 58°
2026-04-30 08:35 52.31638 4.77456 3 ft 12 kts 56°
2026-04-30 08:36 52.31683 4.77566 3 ft 12 kts 57°
2026-04-30 08:36 52.31737 4.77672 3 ft 13 kts 31°
2026-04-30 08:36 52.31830 4.77695 2 ft 15 kts
2026-04-30 08:36 52.31932 4.77703 4 ft 15 kts
2026-04-30 08:37 52.32026 4.77758 4 ft 15 kts 33°
2026-04-30 08:37 52.32101 4.77867 4 ft 15 kts 46°
2026-04-30 08:37 52.32109 4.78002 4 ft 12 kts 142°
2026-04-30 08:37 52.32050 4.78012 4 ft 14 kts 182°
2026-04-30 08:38 52.31839 4.77993 3 ft 60 kts 183°
2026-04-30 08:38 52.31156 4.77931 2 ft 136 kts 183°
2026-04-30 08:38 52.29979 4.77814 58 ft 194 kts 180°
2026-04-30 08:38 52.28621 4.77795 713 ft 198 kts 174°
2026-04-30 08:39 52.27263 4.78139 1242 ft 204 kts 154°
2026-04-30 08:39 52.26152 4.79615 1438 ft 214 kts 125°
2026-04-30 08:39 52.25563 4.81887 1676 ft 225 kts 94°
2026-04-30 08:39 52.25551 4.84516 1876 ft 240 kts 91°
2026-04-30 08:40 52.25505 4.87290 2365 ft 247 kts 94°
2026-04-30 08:40 52.25430 4.90104 3007 ft 249 kts 94°
2026-04-30 08:40 52.25353 4.92935 3724 ft 249 kts 95°
2026-04-30 08:40 52.25274 4.95771 4373 ft 251 kts 94°
2026-04-30 08:41 52.25198 4.98641 4947 ft 255 kts 94°
2026-04-30 08:41 52.25117 5.01563 5545 ft 259 kts 94°
2026-04-30 08:41 52.25034 5.04519 6158 ft 262 kts 94°
2026-04-30 08:41 52.24946 5.07487 6792 ft 263 kts 94°
2026-04-30 08:42 52.24861 5.10485 7366 ft 267 kts 93°
2026-04-30 08:42 52.24774 5.13524 7925 ft 270 kts 93°
2026-04-30 08:42 52.24687 5.16582 8529 ft 271 kts 93°
2026-04-30 08:42 52.24598 5.19626 9090 ft 273 kts 93°
2026-04-30 08:43 52.24500 5.22738 9628 ft 276 kts 93°
2026-04-30 08:43 52.24401 5.25889 10139 ft 280 kts 92°
2026-04-30 08:43 52.24268 5.29064 10708 ft 282 kts 94°
2026-04-30 08:43 52.24101 5.32337 10886 ft 299 kts 94°
2026-04-30 08:44 52.23919 5.35813 11047 ft 316 kts 94°
2026-04-30 08:44 52.23730 5.39486 11188 ft 333 kts 94°
2026-04-30 08:44 52.23532 5.43329 11522 ft 345 kts 94°
2026-04-30 08:44 52.23329 5.47265 11994 ft 352 kts 93°
2026-04-30 08:45 52.23121 5.51265 12588 ft 356 kts 94°
2026-04-30 08:45 52.22639 5.55226 13033 ft 361 kts 107°
2026-04-30 08:45 52.21679 5.59054 13562 ft 367 kts 110°
2026-04-30 08:45 52.20682 5.62896 14146 ft 370 kts 110°
2026-04-30 08:46 52.19693 5.66786 14730 ft 373 kts 109°
2026-04-30 08:46 52.18713 5.70714 15297 ft 376 kts 109°
2026-04-30 08:46 52.17731 5.74693 15852 ft 380 kts 109°
2026-04-30 08:46 52.16746 5.78704 16392 ft 383 kts 109°
2026-04-30 08:47 52.15752 5.82758 16913 ft 387 kts 109°
2026-04-30 08:47 52.14746 5.86851 17432 ft 391 kts 109°
2026-04-30 08:47 52.13784 5.90768 17886 ft 395 kts 109°
2026-04-30 08:47 52.12890 5.94396 18318 ft 398 kts 109°
2026-04-30 08:48 52.11842 5.98648 18793 ft 402 kts 109°
2026-04-30 08:48 52.10867 6.02590 19266 ft 405 kts 109°
2026-04-30 08:48 52.09885 6.06558 19712 ft 408 kts 108°
2026-04-30 08:48 52.09051 6.10941 20112 ft 408 kts 99°
2026-04-30 08:49 52.08631 6.15061 20509 ft 409 kts 96°
2026-04-30 08:49 52.08253 6.19406 20926 ft 412 kts 96°
2026-04-30 08:49 52.07892 6.23503 21321 ft 415 kts 96°
2026-04-30 08:49 52.07461 6.28141 21760 ft 418 kts 96°
2026-04-30 08:50 52.07003 6.32829 22163 ft 422 kts 97°
2026-04-30 08:50 52.06524 6.37552 22573 ft 425 kts 97°
2026-04-30 08:50 52.06029 6.42304 22978 ft 428 kts 97°
2026-04-30 08:50 52.05526 6.47084 23358 ft 431 kts 97°
2026-04-30 08:51 52.05017 6.51892 23736 ft 433 kts 97°
2026-04-30 08:51 52.04504 6.56733 24106 ft 436 kts 97°
2026-04-30 08:51 52.03986 6.61598 24463 ft 439 kts 97°
2026-04-30 08:51 52.03464 6.66497 24847 ft 440 kts 97°
2026-04-30 08:52 52.02939 6.71395 25245 ft 441 kts 97°
2026-04-30 08:52 52.02399 6.76309 25599 ft 444 kts 98°
2026-04-30 08:52 52.01681 6.81200 25932 ft 447 kts 102°
2026-04-30 08:52 52.00884 6.86098 26272 ft 449 kts 102°
2026-04-30 08:53 52.00086 6.91010 26616 ft 451 kts 102°
2026-04-30 08:53 51.99292 6.95941 26960 ft 452 kts 101°
2026-04-30 08:53 51.98503 7.00872 27355 ft 452 kts 101°
2026-04-30 08:53 51.97712 7.05801 27690 ft 453 kts 101°
2026-04-30 08:54 51.96912 7.10748 27974 ft 455 kts 101°
2026-04-30 08:54 51.96056 7.15705 28220 ft 458 kts 103°
2026-04-30 08:54 51.95138 7.20667 28469 ft 460 kts 103°
2026-04-30 08:54 51.94198 7.25633 28745 ft 462 kts 103°
2026-04-30 08:55 51.93255 7.30612 29021 ft 462 kts 103°
2026-04-30 08:55 51.92316 7.35599 29264 ft 464 kts 103°
2026-04-30 08:55 51.91388 7.40551 29388 ft 468 kts 103°
2026-04-30 08:56 51.89498 7.50655 29471 ft 468 kts 103°
2026-04-30 08:56 51.87606 7.60719 29460 ft 467 kts 103°
2026-04-30 08:57 51.85718 7.70765 29485 ft 466 kts 102°
2026-04-30 08:57 51.84208 7.80937 29483 ft 465 kts 99°
2026-04-30 08:58 51.82771 7.91130 29480 ft 465 kts 99°
2026-04-30 08:58 51.81304 8.01330 29479 ft 466 kts 99°
2026-04-30 08:59 51.79816 8.11533 29483 ft 467 kts 99°
2026-04-30 08:59 51.78320 8.21743 29485 ft 467 kts 99°
2026-04-30 09:00 51.76811 8.31947 29481 ft 467 kts 99°
2026-04-30 09:00 51.75365 8.42146 29469 ft 465 kts 98°
2026-04-30 09:01 51.73980 8.52322 29483 ft 464 kts 98°
2026-04-30 09:01 51.72589 8.62467 29489 ft 462 kts 98°
2026-04-30 09:02 51.70471 8.77624 29488 ft 461 kts 98°
2026-04-30 09:02 51.69048 8.87704 29491 ft 461 kts 98°
2026-04-30 09:03 51.67626 8.97755 29481 ft 460 kts 98°
2026-04-30 09:03 51.66197 9.07726 29494 ft 459 kts 98°
2026-04-30 09:04 51.64754 9.17737 29490 ft 459 kts 98°
2026-04-30 09:04 51.63302 9.27742 29486 ft 458 kts 98°
2026-04-30 09:05 51.61850 9.37723 29488 ft 459 kts 98°
2026-04-30 09:05 51.60383 9.47728 29472 ft 460 kts 98°
2026-04-30 09:06 51.58901 9.57759 29497 ft 461 kts 98°
2026-04-30 09:06 51.57407 9.67805 29489 ft 463 kts 99°
2026-04-30 09:07 51.55902 9.77874 29491 ft 464 kts 99°
2026-04-30 09:07 51.54385 9.87944 29482 ft 464 kts 99°
2026-04-30 09:08 51.52860 9.97998 29486 ft 463 kts 99°
2026-04-30 09:08 51.51331 10.08024 29497 ft 462 kts 99°
2026-04-30 09:09 51.49799 10.18017 29491 ft 461 kts 99°
2026-04-30 09:09 51.48259 10.27994 29493 ft 460 kts 99°
2026-04-30 09:10 51.46722 10.37895 29507 ft 460 kts 99°
2026-04-30 09:10 51.45158 10.47916 29508 ft 460 kts 99°
2026-04-30 09:11 51.43588 10.57848 29504 ft 460 kts 99°
2026-04-30 09:11 51.42002 10.67763 29502 ft 459 kts 99°
2026-04-30 09:12 51.40426 10.77583 29506 ft 458 kts 99°
2026-04-30 09:12 51.38860 10.87447 29502 ft 455 kts 96°
2026-04-30 09:13 51.38146 10.97394 29512 ft 446 kts 87°
2026-04-30 09:13 51.38384 11.07244 29509 ft 442 kts 82°
2026-04-30 09:14 51.38785 11.17064 29508 ft 442 kts 82°
2026-04-30 09:14 51.39155 11.26889 29505 ft 442 kts 82°
2026-04-30 09:15 51.39509 11.36726 29503 ft 442 kts 82°
2026-04-30 09:15 51.39851 11.46565 29507 ft 442 kts 82°
2026-04-30 09:16 51.40171 11.56398 29517 ft 442 kts 82°
2026-04-30 09:16 51.40479 11.66205 29522 ft 441 kts 82°
2026-04-30 09:17 51.40781 11.76010 29527 ft 440 kts 82°
2026-04-30 09:17 51.41074 11.85737 29522 ft 440 kts 82°
2026-04-30 09:18 51.41361 11.95521 29532 ft 440 kts 82°
2026-04-30 09:18 51.41647 12.05299 29534 ft 439 kts 82°
2026-04-30 09:19 51.41929 12.15055 29531 ft 438 kts 82°
2026-04-30 09:19 51.42160 12.23162 29530 ft 438 kts 82°
2026-04-30 09:20 51.42427 12.32901 29536 ft 437 kts 82°
2026-04-30 09:20 51.42688 12.42628 29531 ft 437 kts 82°
2026-04-30 09:21 51.42440 12.52375 29540 ft 446 kts 96°
2026-04-30 09:21 51.40361 12.61871 29526 ft 462 kts 111°
2026-04-30 09:22 51.36909 12.70669 29523 ft 467 kts 115°
2026-04-30 09:22 51.33414 12.79445 29524 ft 467 kts 114°
2026-04-30 09:23 51.29977 12.88249 29521 ft 467 kts 114°
2026-04-30 09:23 51.26537 12.97052 29512 ft 466 kts 114°
2026-04-30 09:24 51.23103 13.05824 29516 ft 466 kts 114°
2026-04-30 09:24 51.19663 13.14588 29516 ft 466 kts 114°
2026-04-30 09:25 51.16216 13.23333 29509 ft 466 kts 114°
2026-04-30 09:25 51.12753 13.32043 29507 ft 465 kts 114°
2026-04-30 09:26 51.09307 13.40683 29504 ft 465 kts 114°
2026-04-30 09:26 51.05833 13.49359 29502 ft 465 kts 114°
2026-04-30 09:27 51.02357 13.58014 29504 ft 464 kts 114°
2026-04-30 09:27 50.98896 13.66644 29506 ft 464 kts 114°
2026-04-30 09:28 50.95435 13.75285 29507 ft 464 kts 114°
2026-04-30 09:28 50.91870 13.83852 29503 ft 469 kts 118°
2026-04-30 09:29 50.87807 13.91991 29508 ft 472 kts 120°
2026-04-30 09:29 50.83697 14.00089 29506 ft 475 kts 123°
2026-04-30 09:30 50.78896 14.07346 29503 ft 483 kts 129°
2026-04-30 09:30 50.73890 14.14428 29507 ft 483 kts 129°
2026-04-30 09:31 50.68911 14.21546 29503 ft 483 kts 128°
2026-04-30 09:31 50.63945 14.28675 29503 ft 483 kts 128°
2026-04-30 09:32 50.58970 14.35789 29505 ft 483 kts 128°
2026-04-30 09:32 50.53989 14.42889 29507 ft 483 kts 129°
2026-04-30 09:33 50.49015 14.49967 29507 ft 483 kts 128°
2026-04-30 09:33 50.44149 14.57173 29493 ft 476 kts 124°
2026-04-30 09:34 50.39712 14.64822 29507 ft 474 kts 122°
2026-04-30 09:34 50.35304 14.72520 29503 ft 474 kts 123°
2026-04-30 09:35 50.30897 14.80108 29510 ft 474 kts 123°
2026-04-30 09:35 50.26434 14.87716 29503 ft 475 kts 123°
2026-04-30 09:36 50.21954 14.95310 29506 ft 475 kts 123°
2026-04-30 09:36 50.17472 15.02881 29504 ft 475 kts 123°
2026-04-30 09:37 50.12989 15.10438 29506 ft 474 kts 123°
2026-04-30 09:37 50.08508 15.17966 29504 ft 474 kts 123°
2026-04-30 09:38 50.04027 15.25484 29506 ft 473 kts 123°
2026-04-30 09:38 49.99539 15.32978 29505 ft 473 kts 123°
2026-04-30 09:39 49.95050 15.40444 29506 ft 473 kts 124°
2026-04-30 09:39 49.90557 15.47911 29505 ft 473 kts 124°
2026-04-30 09:40 49.86053 15.55378 29507 ft 474 kts 124°
2026-04-30 09:40 49.81549 15.62827 29496 ft 474 kts 124°
2026-04-30 09:41 49.77040 15.70248 29499 ft 472 kts 124°
2026-04-30 09:41 49.72533 15.77633 29502 ft 472 kts 124°
2026-04-30 09:42 49.68031 15.85007 29499 ft 472 kts 124°
2026-04-30 09:42 49.63517 15.92380 29492 ft 473 kts 124°
2026-04-30 09:43 49.58980 15.99761 29484 ft 475 kts 124°
2026-04-30 09:43 49.54437 16.07136 29470 ft 475 kts 124°
2026-04-30 09:44 49.49917 16.14457 29467 ft 475 kts 125°
2026-04-30 09:44 49.45349 16.21824 29467 ft 476 kts 125°
2026-04-30 09:45 49.40771 16.29188 29463 ft 477 kts 126°
2026-04-30 09:45 49.36185 16.36545 29465 ft 477 kts 126°
2026-04-30 09:46 49.31582 16.43909 29457 ft 479 kts 126°
2026-04-30 09:46 49.26962 16.51280 29462 ft 480 kts 127°
2026-04-30 09:47 49.22330 16.58650 29455 ft 481 kts 127°
2026-04-30 09:47 49.17679 16.66023 29454 ft 482 kts 127°
2026-04-30 09:48 49.13018 16.73390 29459 ft 483 kts 128°
2026-04-30 09:48 49.08346 16.80763 29459 ft 483 kts 128°
2026-04-30 09:49 49.03662 16.88124 29458 ft 484 kts 128°
2026-04-30 09:49 48.98971 16.95479 29459 ft 484 kts 128°
2026-04-30 09:50 48.94272 17.02824 29450 ft 485 kts 129°
2026-04-30 09:50 48.89563 17.10170 29446 ft 485 kts 129°
2026-04-30 09:51 48.84853 17.17492 29452 ft 484 kts 129°
2026-04-30 09:51 48.80123 17.24789 29449 ft 485 kts 129°
2026-04-30 09:52 48.75386 17.32059 29452 ft 485 kts 129°
2026-04-30 09:52 48.70641 17.39330 29443 ft 485 kts 129°
2026-04-30 09:53 48.65891 17.46593 29442 ft 486 kts 130°
2026-04-30 09:53 48.61158 17.53801 29433 ft 486 kts 130°
2026-04-30 09:54 48.56387 17.61057 29435 ft 486 kts 130°
2026-04-30 09:54 48.51614 17.68291 29434 ft 487 kts 130°
2026-04-30 09:55 48.46829 17.75525 29431 ft 487 kts 130°
2026-04-30 09:55 48.42036 17.82743 29433 ft 488 kts 131°
2026-04-30 09:56 48.37236 17.89962 29429 ft 488 kts 131°
2026-04-30 09:56 48.32424 17.97175 29431 ft 488 kts 131°
2026-04-30 09:57 48.27604 18.04380 29427 ft 489 kts 131°
2026-04-30 09:57 48.22770 18.11576 29424 ft 489 kts 131°
2026-04-30 09:58 48.17935 18.18763 29416 ft 489 kts 131°
2026-04-30 09:58 48.13099 18.25934 29429 ft 489 kts 131°
2026-04-30 09:59 48.03415 18.40223 29422 ft 489 kts 131°
2026-04-30 10:00 47.96150 18.50897 29415 ft 488 kts 131°
2026-04-30 10:01 47.88864 18.61551 29423 ft 489 kts 132°
2026-04-30 10:02 47.81603 18.72168 29413 ft 490 kts 130°
2026-04-30 10:02 47.77361 18.80016 29422 ft 486 kts 122°
2026-04-30 10:03 47.73384 18.88152 29417 ft 487 kts 122°
2026-04-30 10:03 47.69362 18.96284 29407 ft 489 kts 122°
2026-04-30 10:04 47.65312 19.04395 29400 ft 489 kts 123°
2026-04-30 10:04 47.61253 19.12489 29404 ft 488 kts 123°
2026-04-30 10:05 47.57190 19.20561 29403 ft 488 kts 123°
2026-04-30 10:05 47.53130 19.28612 29404 ft 488 kts 123°
2026-04-30 10:06 47.49068 19.36643 29404 ft 487 kts 123°
2026-04-30 10:06 47.44999 19.44661 29401 ft 488 kts 123°
2026-04-30 10:07 47.41614 19.51321 29410 ft 488 kts 123°
2026-04-30 10:07 47.37529 19.59330 29395 ft 488 kts 123°
2026-04-30 10:08 47.33438 19.67331 29397 ft 489 kts 123°
2026-04-30 10:08 47.29335 19.75324 29394 ft 489 kts 123°
2026-04-30 10:09 47.25229 19.83303 29386 ft 489 kts 123°
2026-04-30 10:09 47.21113 19.91279 29377 ft 490 kts 123°
2026-04-30 10:10 47.16990 19.99252 29379 ft 490 kts 123°
2026-04-30 10:10 47.12845 20.07240 29377 ft 492 kts 124°
2026-04-30 10:11 47.08691 20.15219 29378 ft 493 kts 124°
2026-04-30 10:11 47.04515 20.23217 29378 ft 494 kts 125°
2026-04-30 10:12 47.00354 20.31163 29378 ft 495 kts 125°
2026-04-30 10:12 46.96153 20.39165 29376 ft 496 kts 125°
2026-04-30 10:13 46.91936 20.47181 29371 ft 498 kts 125°
2026-04-30 10:13 46.87694 20.55209 29367 ft 498 kts 126°
2026-04-30 10:14 46.83451 20.63218 29362 ft 498 kts 126°
2026-04-30 10:14 46.77076 20.75211 29353 ft 498 kts 126°
2026-04-30 10:15 46.72822 20.83181 29350 ft 498 kts 127°
2026-04-30 10:15 46.68559 20.91154 29347 ft 498 kts 127°
2026-04-30 10:16 46.64293 20.99107 29335 ft 499 kts 127°
2026-04-30 10:17 46.57911 21.10968 29316 ft 499 kts 128°
2026-04-30 10:17 46.51478 21.22861 29314 ft 499 kts 128°
2026-04-30 10:18 46.47207 21.30823 29306 ft 500 kts 128°
2026-04-30 10:19 46.40970 21.42962 29303 ft 501 kts 128°
2026-04-30 10:19 46.36802 21.51072 29293 ft 502 kts 128°
2026-04-30 10:20 46.32615 21.59153 29294 ft 502 kts 129°
2026-04-30 10:20 46.26299 21.71272 29301 ft 503 kts 130°
2026-04-30 10:21 46.22072 21.79348 29294 ft 504 kts 130°
2026-04-30 10:21 46.17840 21.87414 29290 ft 504 kts 130°
2026-04-30 10:22 46.13602 21.95469 29297 ft 504 kts 130°
2026-04-30 10:22 46.09365 22.03506 29294 ft 504 kts 131°
2026-04-30 10:23 46.05113 22.11535 29294 ft 504 kts 131°
2026-04-30 10:23 46.00859 22.19549 29301 ft 504 kts 131°
2026-04-30 10:24 45.96602 22.27553 29291 ft 504 kts 131°
2026-04-30 10:24 45.92357 22.35493 29289 ft 505 kts 131°
2026-04-30 10:25 45.88082 22.43507 29300 ft 506 kts 131°
2026-04-30 10:25 45.83792 22.51503 29295 ft 506 kts 131°
2026-04-30 10:26 45.79486 22.59492 29295 ft 507 kts 132°
2026-04-30 10:26 45.75160 22.67504 29303 ft 508 kts 132°
2026-04-30 10:27 45.70817 22.75529 29293 ft 511 kts 133°
2026-04-30 10:27 45.66454 22.83567 29304 ft 512 kts 133°
2026-04-30 10:28 45.62070 22.91616 29297 ft 514 kts 133°
2026-04-30 10:28 45.57670 22.99676 29297 ft 515 kts 133°
2026-04-30 10:29 45.53255 23.07742 29301 ft 516 kts 133°
2026-04-30 10:29 45.48855 23.15755 29297 ft 517 kts 134°
2026-04-30 10:30 45.44412 23.23821 29289 ft 517 kts 134°
2026-04-30 10:30 45.39976 23.31861 29289 ft 516 kts 134°
2026-04-30 10:31 45.35535 23.39883 29306 ft 516 kts 134°
2026-04-30 10:31 45.31082 23.47896 29296 ft 516 kts 134°
2026-04-30 10:32 45.26621 23.55904 29297 ft 517 kts 134°
2026-04-30 10:32 45.22155 23.63907 29290 ft 517 kts 134°
2026-04-30 10:33 45.17683 23.71892 29301 ft 517 kts 134°
2026-04-30 10:33 45.13198 23.79872 29296 ft 519 kts 134°
2026-04-30 10:34 45.08694 23.87867 29293 ft 520 kts 134°
2026-04-30 10:34 45.04181 23.95858 29297 ft 520 kts 135°
2026-04-30 10:35 44.99653 24.03850 29295 ft 521 kts 135°
2026-04-30 10:35 44.95120 24.11836 29290 ft 521 kts 135°
2026-04-30 10:36 44.90579 24.19812 29302 ft 523 kts 135°
2026-04-30 10:36 44.86014 24.27800 29299 ft 523 kts 135°
2026-04-30 10:37 44.81441 24.35784 29301 ft 524 kts 135°
2026-04-30 10:37 44.76852 24.43773 29292 ft 525 kts 135°
2026-04-30 10:38 44.72250 24.51763 29296 ft 526 kts 135°
2026-04-30 10:38 44.67645 24.59743 29292 ft 525 kts 135°
2026-04-30 10:39 44.63032 24.67699 29292 ft 525 kts 135°
2026-04-30 10:39 44.58418 24.75638 29294 ft 525 kts 135°
2026-04-30 10:40 44.53840 24.83504 29294 ft 524 kts 135°
2026-04-30 10:40 44.49224 24.91407 29295 ft 523 kts 135°
2026-04-30 10:41 44.44611 24.99284 29285 ft 523 kts 135°
2026-04-30 10:41 44.39983 25.07159 29276 ft 524 kts 135°
2026-04-30 10:42 44.35358 25.15010 29277 ft 524 kts 136°
2026-04-30 10:42 44.30719 25.22871 29279 ft 524 kts 136°
2026-04-30 10:43 44.26082 25.30700 29265 ft 524 kts 136°
2026-04-30 10:43 44.21431 25.38528 29272 ft 524 kts 136°
2026-04-30 10:44 44.16781 25.46341 29266 ft 524 kts 136°
2026-04-30 10:44 44.12129 25.54129 29268 ft 523 kts 136°
2026-04-30 10:45 44.07471 25.61913 29265 ft 523 kts 136°
2026-04-30 10:45 44.02810 25.69690 29258 ft 523 kts 136°
2026-04-30 10:46 43.98140 25.77442 29261 ft 523 kts 136°
2026-04-30 10:46 43.93465 25.85186 29261 ft 524 kts 136°
2026-04-30 10:47 43.88779 25.92920 29252 ft 524 kts 136°
2026-04-30 10:47 43.84083 26.00661 29251 ft 524 kts 136°
2026-04-30 10:48 43.79384 26.08381 29240 ft 524 kts 136°
2026-04-30 10:48 43.74681 26.16098 29243 ft 524 kts 136°
2026-04-30 10:49 43.69977 26.23792 29230 ft 524 kts 136°
2026-04-30 10:49 43.65269 26.31469 29227 ft 523 kts 136°
2026-04-30 10:50 43.60561 26.39124 29221 ft 522 kts 136°
2026-04-30 10:50 43.55856 26.46756 29220 ft 522 kts 136°
2026-04-30 10:51 43.51149 26.54365 29211 ft 521 kts 136°
2026-04-30 10:51 43.46447 26.61956 29220 ft 521 kts 136°
2026-04-30 10:52 43.41739 26.69537 29222 ft 521 kts 136°
2026-04-30 10:52 43.37822 26.75820 29217 ft 521 kts 136°
2026-04-30 10:53 43.33095 26.83385 29201 ft 521 kts 136°
2026-04-30 10:53 43.27602 26.92162 29196 ft 521 kts 136°
2026-04-30 10:54 43.23642 26.98470 29204 ft 520 kts 136°
2026-04-30 10:54 43.18917 27.05977 29197 ft 520 kts 136°
2026-04-30 10:55 43.14188 27.13472 29200 ft 520 kts 136°
2026-04-30 10:55 43.09486 27.20908 29238 ft 523 kts 136°
2026-04-30 10:56 43.07098 27.24673 29485 ft 524 kts 136°
2026-04-30 10:56 43.04712 27.28435 29823 ft 522 kts 136°
2026-04-30 10:56 43.02332 27.32181 30189 ft 521 kts 136°
2026-04-30 10:56 42.99959 27.35911 30544 ft 519 kts 136°
2026-04-30 10:57 42.97593 27.39624 30863 ft 518 kts 136°
2026-04-30 10:57 42.95230 27.43333 31108 ft 518 kts 136°
2026-04-30 10:57 42.90480 27.50770 31178 ft 520 kts 136°
2026-04-30 10:58 42.85735 27.58166 31182 ft 516 kts 136°
2026-04-30 10:58 42.81015 27.65512 31181 ft 514 kts 136°
2026-04-30 10:59 42.76303 27.72833 31187 ft 513 kts 136°
2026-04-30 10:59 42.71589 27.80128 31182 ft 514 kts 136°
2026-04-30 11:00 42.66870 27.87421 31194 ft 514 kts 136°
2026-04-30 11:00 42.62172 27.94668 31189 ft 515 kts 136°
2026-04-30 11:01 42.57431 28.01955 31189 ft 515 kts 136°
2026-04-30 11:01 42.52681 28.09238 31184 ft 515 kts 136°
2026-04-30 11:02 42.47928 28.16508 31183 ft 515 kts 136°
2026-04-30 11:02 42.43171 28.23769 31178 ft 515 kts 136°
2026-04-30 11:03 42.38416 28.31008 31175 ft 515 kts 136°
2026-04-30 11:04 42.31275 28.41844 31165 ft 514 kts 136°
2026-04-30 11:04 42.26510 28.49056 31167 ft 514 kts 136°
2026-04-30 11:05 42.21778 28.56197 31167 ft 514 kts 136°
2026-04-30 11:05 42.17012 28.63371 31148 ft 513 kts 137°
2026-04-30 11:06 42.12251 28.70529 31164 ft 513 kts 137°
2026-04-30 11:06 42.07595 28.77835 31150 ft 517 kts 130°
2026-04-30 11:07 42.03682 28.86005 31151 ft 520 kts 126°
2026-04-30 11:07 41.99873 28.94281 31144 ft 521 kts 126°
2026-04-30 11:08 41.96028 29.02525 31144 ft 520 kts 126°
2026-04-30 11:08 41.92166 29.10716 31132 ft 518 kts 126°
2026-04-30 11:09 41.88300 29.18871 31126 ft 517 kts 126°
2026-04-30 11:09 41.84442 29.26987 31127 ft 515 kts 126°
2026-04-30 11:10 41.80593 29.35077 31127 ft 514 kts 126°
2026-04-30 11:10 41.76741 29.43154 31132 ft 514 kts 126°
2026-04-30 11:11 41.72881 29.51221 31130 ft 514 kts 126°
2026-04-30 11:11 41.69012 29.59286 31121 ft 515 kts 126°
2026-04-30 11:12 41.65132 29.67360 31111 ft 516 kts 126°
2026-04-30 11:12 41.61238 29.75430 31113 ft 517 kts 126°
2026-04-30 11:13 41.57335 29.83500 31110 ft 517 kts 126°
2026-04-30 11:13 41.53424 29.91561 31113 ft 517 kts 126°
2026-04-30 11:14 41.49542 29.99560 31108 ft 517 kts 126°
2026-04-30 11:14 41.45627 30.07595 31113 ft 516 kts 126°
2026-04-30 11:15 41.41711 30.15613 31100 ft 516 kts 127°
2026-04-30 11:15 41.37787 30.23612 31105 ft 515 kts 127°
2026-04-30 11:16 41.33865 30.31596 31100 ft 515 kts 127°
2026-04-30 11:16 41.29946 30.39555 31100 ft 514 kts 127°
2026-04-30 11:17 41.26027 30.47494 31101 ft 513 kts 127°
2026-04-30 11:17 41.22109 30.55403 31098 ft 512 kts 127°
2026-04-30 11:18 41.18190 30.63305 31102 ft 512 kts 127°
2026-04-30 11:18 41.12307 30.75122 31103 ft 512 kts 127°
2026-04-30 11:19 41.08374 30.82995 31100 ft 511 kts 127°
2026-04-30 11:19 41.04470 30.90789 31107 ft 511 kts 127°
2026-04-30 11:20 41.00538 30.98628 31099 ft 511 kts 127°
2026-04-30 11:20 40.96620 31.06486 31111 ft 512 kts 126°
2026-04-30 11:21 40.92725 31.14372 31100 ft 512 kts 126°
2026-04-30 11:21 40.88825 31.22254 31098 ft 512 kts 126°
2026-04-30 11:22 40.84919 31.30111 31104 ft 511 kts 126°
2026-04-30 11:22 40.81009 31.37949 31101 ft 510 kts 126°
2026-04-30 11:23 40.77099 31.45772 31099 ft 510 kts 126°
2026-04-30 11:24 40.71228 31.57482 31089 ft 510 kts 127°
2026-04-30 11:24 40.67304 31.65272 31095 ft 510 kts 127°
2026-04-30 11:25 40.61416 31.76943 31092 ft 510 kts 127°
2026-04-30 11:26 40.55097 31.93577 31090 ft 514 kts 112°
2026-04-30 11:26 40.52585 32.02366 31079 ft 513 kts 113°
2026-04-30 11:27 40.50009 32.11112 31082 ft 513 kts 113°
2026-04-30 11:27 40.47416 32.19858 31074 ft 514 kts 112°
2026-04-30 11:28 40.44009 32.33213 31076 ft 514 kts 110°
2026-04-30 11:29 40.41780 32.42134 31083 ft 515 kts 110°
2026-04-30 11:29 40.38380 32.55523 31071 ft 516 kts 110°
2026-04-30 11:30 40.34951 32.68917 31077 ft 516 kts 110°
2026-04-30 11:31 40.32665 32.77831 31073 ft 516 kts 110°
2026-04-30 11:31 40.30365 32.86738 31076 ft 516 kts 110°
2026-04-30 11:32 40.28062 32.95640 31073 ft 516 kts 110°
2026-04-30 11:32 40.25753 33.04537 31072 ft 516 kts 111°
2026-04-30 11:33 40.23316 33.18260 31077 ft 519 kts 98°
2026-04-30 11:33 40.22463 33.27638 31075 ft 520 kts 98°
2026-04-30 11:34 40.21566 33.36964 31079 ft 520 kts 98°
2026-04-30 11:34 40.20617 33.46333 31081 ft 520 kts 98°
2026-04-30 11:35 40.19657 33.55706 31068 ft 520 kts 98°
2026-04-30 11:35 40.18694 33.65071 31070 ft 520 kts 98°
2026-04-30 11:36 40.17725 33.74432 31044 ft 519 kts 99°
2026-04-30 11:36 40.16750 33.83777 31051 ft 518 kts 99°
2026-04-30 11:37 40.15496 33.93047 31057 ft 517 kts 102°
2026-04-30 11:37 40.14248 34.02306 31053 ft 517 kts 99°
2026-04-30 11:38 40.13288 34.11626 31075 ft 517 kts 98°
2026-04-30 11:38 40.12346 34.20942 31068 ft 518 kts 99°
2026-04-30 11:39 40.11347 34.30262 31057 ft 518 kts 99°
2026-04-30 11:39 40.10317 34.39567 31056 ft 518 kts 99°
2026-04-30 11:40 40.09277 34.48880 31075 ft 518 kts 99°
2026-04-30 11:40 40.08230 34.58199 31068 ft 519 kts 99°
2026-04-30 11:41 40.07185 34.67461 31086 ft 519 kts 99°
2026-04-30 11:41 40.06128 34.76782 31071 ft 520 kts 99°
2026-04-30 11:42 40.05060 34.86108 31080 ft 519 kts 99°
2026-04-30 11:42 40.03982 34.95429 31076 ft 519 kts 99°
2026-04-30 11:43 40.03076 35.03236 31073 ft 519 kts 99°
2026-04-30 11:43 40.01993 35.12487 31069 ft 520 kts 99°
2026-04-30 11:44 40.00897 35.21799 31073 ft 519 kts 99°
2026-04-30 11:44 39.99796 35.31100 31076 ft 518 kts 100°
2026-04-30 11:45 39.98680 35.40371 31067 ft 517 kts 100°
2026-04-30 11:45 39.97521 35.49596 31071 ft 515 kts 100°
2026-04-30 11:46 39.96354 35.58783 31093 ft 513 kts 100°
2026-04-30 11:46 39.95192 35.67946 31083 ft 512 kts 100°
2026-04-30 11:47 39.94022 35.77106 31091 ft 513 kts 100°
2026-04-30 11:47 39.92846 35.86283 31098 ft 514 kts 100°
2026-04-30 11:48 39.91658 35.95475 31105 ft 515 kts 101°
2026-04-30 11:48 39.90440 36.04688 31104 ft 517 kts 101°
2026-04-30 11:49 39.89214 36.13917 31107 ft 517 kts 101°
2026-04-30 11:49 39.87983 36.23149 31095 ft 518 kts 101°
2026-04-30 11:50 39.86710 36.32299 31105 ft 517 kts 102°
2026-04-30 11:50 39.85321 36.41464 31115 ft 515 kts 101°
2026-04-30 11:51 39.84115 36.50654 31116 ft 515 kts 100°
2026-04-30 11:51 39.82918 36.59831 31134 ft 514 kts 101°
2026-04-30 11:52 39.81681 36.68981 31136 ft 513 kts 101°
2026-04-30 11:52 39.80434 36.78118 31145 ft 513 kts 101°
2026-04-30 11:53 39.79343 36.87273 31143 ft 514 kts 95°
2026-04-30 11:53 39.79383 36.96544 31146 ft 513 kts 83°
2026-04-30 11:54 39.80225 37.05767 31153 ft 514 kts 83°
2026-04-30 11:54 39.81027 37.14935 31165 ft 514 kts 83°
2026-04-30 11:55 39.81782 37.24182 31148 ft 515 kts 83°
2026-04-30 11:55 39.82527 37.33461 31147 ft 516 kts 83°
2026-04-30 11:56 39.83275 37.42744 31148 ft 517 kts 83°
2026-04-30 11:56 39.83998 37.52050 31135 ft 517 kts 84°
2026-04-30 11:57 39.84705 37.61351 31138 ft 517 kts 84°
2026-04-30 11:57 39.85408 37.70665 31133 ft 516 kts 84°
2026-04-30 11:58 39.86107 37.79959 31126 ft 516 kts 84°
2026-04-30 11:58 39.86796 37.89267 31131 ft 516 kts 84°
2026-04-30 11:59 39.87479 37.98571 31135 ft 517 kts 84°
2026-04-30 11:59 39.88156 38.07896 31126 ft 517 kts 84°
2026-04-30 12:00 39.88824 38.17222 31142 ft 518 kts 84°
2026-04-30 12:00 39.89486 38.26561 31150 ft 518 kts 84°
2026-04-30 12:01 39.90141 38.35899 31143 ft 518 kts 84°
2026-04-30 12:01 39.90787 38.45238 31128 ft 517 kts 84°
2026-04-30 12:02 39.91427 38.54570 31116 ft 517 kts 84°
2026-04-30 12:02 39.92060 38.63896 31115 ft 516 kts 84°
2026-04-30 12:03 39.92989 38.77857 31102 ft 515 kts 84°
2026-04-30 12:04 39.93600 38.87150 31108 ft 514 kts 84°
2026-04-30 12:04 39.93889 38.96395 31096 ft 514 kts 88°
2026-04-30 12:05 39.94017 39.05699 31091 ft 513 kts 88°
2026-04-30 12:05 39.94178 39.15005 31094 ft 514 kts 88°
2026-04-30 12:06 39.94330 39.24318 31066 ft 515 kts 89°
2026-04-30 12:06 39.94470 39.33646 31060 ft 515 kts 89°
2026-04-30 12:07 39.94602 39.42971 31064 ft 515 kts 89°
2026-04-30 12:07 39.94730 39.52297 31047 ft 515 kts 89°
2026-04-30 12:08 39.94846 39.61619 31058 ft 514 kts 89°
2026-04-30 12:08 39.94930 39.70948 31057 ft 515 kts 89°
2026-04-30 12:09 39.95009 39.80294 31058 ft 516 kts 89°
2026-04-30 12:09 39.95085 39.89648 31073 ft 516 kts 89°
2026-04-30 12:10 39.95162 39.98949 31059 ft 516 kts 89°
2026-04-30 12:10 39.95248 40.08292 31076 ft 516 kts 89°
2026-04-30 12:11 39.95325 40.17646 31084 ft 516 kts 89°
2026-04-30 12:11 39.95398 40.26986 31088 ft 516 kts 89°
2026-04-30 12:12 39.95456 40.36338 31091 ft 515 kts 89°
2026-04-30 12:12 39.95508 40.45675 31101 ft 515 kts 89°
2026-04-30 12:13 39.95554 40.55005 31105 ft 515 kts 89°
2026-04-30 12:13 39.95592 40.64333 31098 ft 515 kts 89°
2026-04-30 12:14 39.95628 40.73672 31102 ft 515 kts 89°
2026-04-30 12:14 39.95657 40.82998 31099 ft 514 kts 89°
2026-04-30 12:15 39.95679 40.92306 31104 ft 513 kts 89°
2026-04-30 12:15 39.95693 41.01602 31098 ft 513 kts 89°
2026-04-30 12:16 39.95701 41.10895 31102 ft 512 kts 89°
2026-04-30 12:16 39.96253 41.20129 31094 ft 510 kts 77°
2026-04-30 12:17 39.99676 41.33163 31113 ft 507 kts 64°
2026-04-30 12:17 40.02510 41.41534 31105 ft 509 kts 64°
2026-04-30 12:18 40.05320 41.50035 31102 ft 511 kts 64°
2026-04-30 12:18 40.08099 41.58584 31097 ft 511 kts 65°
2026-04-30 12:19 40.10874 41.67132 31120 ft 511 kts 65°
2026-04-30 12:19 40.13637 41.75696 31110 ft 511 kts 65°
2026-04-30 12:20 40.16370 41.84269 31109 ft 510 kts 65°
2026-04-30 12:20 40.19086 41.92827 31112 ft 509 kts 65°
2026-04-30 12:21 40.21796 42.01375 31104 ft 508 kts 65°
2026-04-30 12:21 40.24493 42.09915 31115 ft 507 kts 65°
2026-04-30 12:22 40.27178 42.18444 31113 ft 507 kts 65°
2026-04-30 12:22 40.29863 42.26987 31122 ft 507 kts 65°
2026-04-30 12:23 40.32527 42.35489 31125 ft 508 kts 65°
2026-04-30 12:23 40.35208 42.44080 31122 ft 510 kts 65°
2026-04-30 12:24 40.37890 42.52706 31116 ft 511 kts 65°
2026-04-30 12:24 40.40572 42.61350 31116 ft 512 kts 65°
2026-04-30 12:25 40.43242 42.69997 31127 ft 511 kts 65°
2026-04-30 12:25 40.45908 42.78638 31129 ft 511 kts 65°
2026-04-30 12:26 40.48576 42.87285 31130 ft 511 kts 65°
2026-04-30 12:26 40.51250 42.95931 31128 ft 511 kts 65°
2026-04-30 12:27 40.53915 43.04577 31133 ft 510 kts 65°
2026-04-30 12:27 40.56887 43.13014 31124 ft 507 kts 56°
2026-04-30 12:28 40.60727 43.20743 31133 ft 504 kts 53°
2026-04-30 12:28 40.64587 43.28465 31129 ft 505 kts 53°
2026-04-30 12:29 40.68395 43.36248 31127 ft 506 kts 54°
2026-04-30 12:29 40.72188 43.44047 31119 ft 506 kts 54°
2026-04-30 12:30 40.75949 43.51813 31109 ft 505 kts 54°
2026-04-30 12:30 40.79729 43.59633 31110 ft 505 kts 54°
2026-04-30 12:31 40.82939 43.67860 31104 ft 510 kts 71°
2026-04-30 12:31 40.83897 43.77131 31097 ft 515 kts 92°
2026-04-30 12:32 40.83447 43.84972 31108 ft 516 kts 93°
2026-04-30 12:32 40.83070 43.94432 31104 ft 517 kts 91°
2026-04-30 12:33 40.82786 44.03929 31106 ft 518 kts 91°
2026-04-30 12:33 40.82483 44.13434 31101 ft 518 kts 91°
2026-04-30 12:34 40.82153 44.22938 31084 ft 518 kts 91°
2026-04-30 12:34 40.81807 44.32422 31098 ft 517 kts 91°
2026-04-30 12:35 40.81454 44.41893 31079 ft 517 kts 92°
2026-04-30 12:35 40.81097 44.51367 31101 ft 517 kts 92°
2026-04-30 12:36 40.80731 44.60867 31098 ft 520 kts 92°
2026-04-30 12:36 40.80354 44.70428 31066 ft 522 kts 92°
2026-04-30 12:37 40.79968 44.80009 31049 ft 523 kts 92°
2026-04-30 12:37 40.79575 44.89589 31070 ft 522 kts 92°
2026-04-30 12:38 40.79173 44.99163 31062 ft 522 kts 92°
2026-04-30 12:38 40.78765 45.08705 31070 ft 520 kts 92°
2026-04-30 12:39 40.78350 45.18173 31078 ft 520 kts 92°
2026-04-30 12:39 40.77930 45.27694 31086 ft 519 kts 92°
2026-04-30 12:40 40.77500 45.37205 31078 ft 519 kts 92°
2026-04-30 12:40 40.77065 45.46692 31089 ft 518 kts 92°
2026-04-30 12:41 40.76430 45.56175 31092 ft 519 kts 96°
2026-04-30 12:41 40.75556 45.65622 31091 ft 519 kts 96°
2026-04-30 12:42 40.74666 45.75060 31104 ft 519 kts 96°
2026-04-30 12:42 40.73792 45.84500 31106 ft 518 kts 96°
2026-04-30 12:43 40.72927 45.93925 31101 ft 518 kts 96°
2026-04-30 12:43 40.72048 46.03350 31086 ft 518 kts 96°
2026-04-30 12:44 40.71161 46.12758 31098 ft 517 kts 96°
2026-04-30 12:44 40.70269 46.22168 31096 ft 517 kts 96°
2026-04-30 12:45 40.69372 46.31560 31108 ft 516 kts 97°
2026-04-30 12:45 40.68466 46.40930 31100 ft 515 kts 97°
2026-04-30 12:46 40.67556 46.50290 31100 ft 515 kts 97°
2026-04-30 12:46 40.66643 46.59573 31105 ft 514 kts 97°
2026-04-30 12:47 40.65719 46.68897 31109 ft 514 kts 97°
2026-04-30 12:47 40.64789 46.78229 31114 ft 514 kts 97°
2026-04-30 12:48 40.63850 46.87553 31122 ft 514 kts 97°
2026-04-30 12:48 40.62903 46.96884 31124 ft 514 kts 97°
2026-04-30 12:49 40.61947 47.06222 31127 ft 515 kts 97°
2026-04-30 12:49 40.60984 47.15560 31132 ft 515 kts 97°
2026-04-30 12:50 40.60424 47.24946 31136 ft 514 kts 91°
2026-04-30 12:50 40.60205 47.34340 31129 ft 514 kts 91°
2026-04-30 12:51 40.59958 47.43730 31133 ft 514 kts 92°
2026-04-30 12:51 40.59677 47.53080 31127 ft 514 kts 92°
2026-04-30 12:52 40.59377 47.62476 31128 ft 514 kts 92°
2026-04-30 12:52 40.59075 47.71879 31127 ft 514 kts 92°
2026-04-30 12:53 40.58766 47.81283 31130 ft 514 kts 92°
2026-04-30 12:53 40.58452 47.90687 31129 ft 514 kts 92°
2026-04-30 12:54 40.58314 48.00081 31122 ft 514 kts 88°
2026-04-30 12:54 40.58681 48.09475 31118 ft 513 kts 87°
2026-04-30 12:55 40.58964 48.18851 31121 ft 513 kts 88°
2026-04-30 12:55 40.59203 48.28236 31120 ft 513 kts 88°
2026-04-30 12:56 40.59451 48.37616 31125 ft 513 kts 88°
2026-04-30 12:56 40.59697 48.46996 31121 ft 513 kts 88°
2026-04-30 12:57 40.59931 48.56377 31115 ft 514 kts 88°
2026-04-30 12:57 40.60159 48.65771 31118 ft 513 kts 88°
2026-04-30 12:58 40.60376 48.75150 31124 ft 513 kts 88°
2026-04-30 12:58 40.60584 48.84533 31119 ft 513 kts 89°
2026-04-30 12:59 40.60786 48.93909 31123 ft 513 kts 89°
2026-04-30 12:59 40.60983 49.03282 31127 ft 512 kts 89°
2026-04-30 13:00 40.61171 49.12649 31129 ft 512 kts 89°
2026-04-30 13:00 40.61363 49.21942 31133 ft 511 kts 88°
2026-04-30 13:01 40.61865 49.31278 31138 ft 511 kts 85°
2026-04-30 13:01 40.62480 49.40607 31147 ft 511 kts 85°
2026-04-30 13:02 40.63047 49.49871 31145 ft 511 kts 86°
2026-04-30 13:02 40.63570 49.59196 31151 ft 510 kts 86°
2026-04-30 13:03 40.64073 49.68515 31149 ft 510 kts 86°
2026-04-30 13:03 40.64571 49.77820 31161 ft 510 kts 86°
2026-04-30 13:04 40.65065 49.87132 31146 ft 509 kts 86°
2026-04-30 13:04 40.65550 49.96441 31162 ft 510 kts 87°
2026-04-30 13:05 40.66029 50.05755 31165 ft 510 kts 87°
2026-04-30 13:06 40.66735 50.19729 31161 ft 509 kts 87°
2026-04-30 13:06 40.67192 50.28972 31153 ft 509 kts 87°
2026-04-30 13:07 40.67646 50.38276 31156 ft 509 kts 88°
2026-04-30 13:07 40.68091 50.47579 31156 ft 509 kts 88°
2026-04-30 13:08 40.68528 50.56886 31159 ft 508 kts 88°
2026-04-30 13:08 40.68957 50.66184 31158 ft 508 kts 88°
2026-04-30 13:09 40.69381 50.75473 31156 ft 508 kts 88°
2026-04-30 13:09 40.69797 50.84759 31147 ft 508 kts 88°
2026-04-30 13:10 40.70206 50.94065 31152 ft 509 kts 88°
2026-04-30 13:10 40.70607 51.03366 31152 ft 508 kts 88°
2026-04-30 13:11 40.70999 51.12667 31145 ft 508 kts 88°
2026-04-30 13:11 40.71385 51.21963 31146 ft 507 kts 88°
2026-04-30 13:12 40.71763 51.31246 31147 ft 508 kts 88°
2026-04-30 13:12 40.72137 51.40541 31150 ft 508 kts 89°
2026-04-30 13:13 40.71684 51.49729 31139 ft 501 kts 106°
2026-04-30 13:13 40.70669 51.54102 31150 ft 498 kts 114°
2026-04-30 13:14 40.65802 51.66058 31137 ft 494 kts 123°
2026-04-30 13:14 40.60739 51.77917 31139 ft 496 kts 122°
2026-04-30 13:15 40.55715 51.89834 31151 ft 496 kts 122°
2026-04-30 13:16 40.52364 51.97766 31163 ft 496 kts 122°
2026-04-30 13:16 40.49006 52.05686 31151 ft 496 kts 122°
2026-04-30 13:17 40.43969 52.17523 31148 ft 494 kts 122°
2026-04-30 13:18 40.38941 52.29297 31146 ft 493 kts 122°
2026-04-30 13:18 40.33927 52.40991 31154 ft 492 kts 122°
2026-04-30 13:19 40.30566 52.48805 31162 ft 492 kts 122°
2026-04-30 13:19 40.27197 52.56623 31150 ft 493 kts 122°
2026-04-30 13:20 40.24149 52.62954 31162 ft 490 kts 128°
2026-04-30 13:20 40.20281 52.70237 31162 ft 491 kts 128°
2026-04-30 13:21 40.16397 52.77584 31148 ft 491 kts 128°
2026-04-30 13:22 40.10597 52.88611 31161 ft 491 kts 128°
2026-04-30 13:22 40.05103 52.99892 31149 ft 495 kts 116°
2026-04-30 13:23 40.02685 53.13030 31164 ft 501 kts 99°
2026-04-30 13:24 40.01016 53.31087 31150 ft 501 kts 100°
2026-04-30 13:25 39.99189 53.49117 31149 ft 501 kts 100°
2026-04-30 13:26 39.96867 53.71620 31145 ft 501 kts 100°
2026-04-30 13:28 39.94509 53.94056 31139 ft 501 kts 101°
2026-04-30 13:28 39.93070 54.07543 31136 ft 501 kts 101°
2026-04-30 13:29 39.91130 54.25495 31129 ft 500 kts 101°
2026-04-30 13:31 39.88469 54.47839 31124 ft 496 kts 108°
2026-04-30 13:32 39.83761 54.69381 31131 ft 496 kts 109°
2026-04-30 13:32 39.82546 54.78251 31129 ft 502 kts 98°
2026-04-30 13:33 39.82563 54.87361 31134 ft 505 kts 90°
2026-04-30 13:34 39.83096 55.01043 31129 ft 505 kts 91°
2026-04-30 13:35 39.83666 55.19273 31131 ft 503 kts 92°
2026-04-30 13:36 39.84233 55.37415 31129 ft 501 kts 92°
2026-04-30 13:36 39.84631 55.50912 31125 ft 499 kts 93°
2026-04-30 13:37 39.85008 55.64428 31130 ft 498 kts 93°
2026-04-30 13:38 39.85386 55.77929 31129 ft 496 kts 94°
2026-04-30 13:39 39.85843 55.95875 31131 ft 496 kts 94°
2026-04-30 13:40 39.86177 56.09340 31117 ft 496 kts 94°
2026-04-30 13:40 39.86393 56.18302 31118 ft 495 kts 94°
2026-04-30 13:41 39.86593 56.27267 31122 ft 495 kts 94°
2026-04-30 13:41 39.86802 56.36237 31118 ft 496 kts 94°
2026-04-30 13:42 39.87005 56.45227 31123 ft 497 kts 94°
2026-04-30 13:42 39.87295 56.58744 31122 ft 499 kts 94°
2026-04-30 13:43 39.87483 56.67712 31113 ft 498 kts 94°
2026-04-30 13:43 39.87657 56.76800 31112 ft 499 kts 94°
2026-04-30 13:44 39.87824 56.85836 31109 ft 499 kts 94°
2026-04-30 13:44 39.87985 56.94865 31096 ft 499 kts 94°
2026-04-30 13:45 39.88220 57.08410 31100 ft 499 kts 94°
2026-04-30 13:46 39.88365 57.17381 31102 ft 499 kts 94°
2026-04-30 13:46 39.88500 57.26411 31099 ft 499 kts 94°
2026-04-30 13:47 39.88634 57.35448 31092 ft 499 kts 94°
2026-04-30 13:47 39.88761 57.44490 31096 ft 499 kts 94°
2026-04-30 13:48 39.88875 57.53526 31088 ft 499 kts 94°
2026-04-30 13:48 39.88985 57.62548 31092 ft 498 kts 94°
2026-04-30 13:49 39.89089 57.71566 31092 ft 498 kts 94°
2026-04-30 13:49 39.89188 57.80578 31091 ft 497 kts 94°
2026-04-30 13:50 39.89274 57.89581 31089 ft 497 kts 94°
2026-04-30 13:50 39.89396 58.03091 31081 ft 497 kts 94°
2026-04-30 13:51 39.89468 58.12040 31085 ft 497 kts 94°
2026-04-30 13:51 39.89542 58.21048 31079 ft 498 kts 94°
2026-04-30 13:52 39.89661 58.30118 31085 ft 498 kts 92°
2026-04-30 13:52 39.89799 58.39070 31081 ft 498 kts 94°
2026-04-30 13:53 39.89838 58.48094 31069 ft 499 kts 94°
2026-04-30 13:53 39.89892 58.57144 31072 ft 500 kts 94°
2026-04-30 13:54 39.89964 58.66274 31066 ft 501 kts 94°
2026-04-30 13:54 39.90029 58.75362 31060 ft 502 kts 94°
2026-04-30 13:55 39.90086 58.84460 31051 ft 503 kts 94°
2026-04-30 13:55 39.90134 58.93569 31053 ft 504 kts 94°
2026-04-30 13:56 39.90177 59.02701 31050 ft 505 kts 94°
2026-04-30 13:56 39.90210 59.11846 31048 ft 506 kts 94°
2026-04-30 13:57 39.90213 59.21012 31047 ft 507 kts 94°
2026-04-30 13:57 39.90206 59.30139 31042 ft 508 kts 94°
2026-04-30 13:58 39.90180 59.43939 31034 ft 508 kts 94°
2026-04-30 13:59 39.90129 59.53148 31039 ft 508 kts 94°
2026-04-30 13:59 39.90076 59.62359 31035 ft 508 kts 94°
2026-04-30 14:00 39.90018 59.71560 31027 ft 509 kts 94°
2026-04-30 14:00 39.89919 59.85386 31018 ft 509 kts 94°
2026-04-30 14:01 39.89842 59.94607 31008 ft 509 kts 94°
2026-04-30 14:01 39.89758 60.03832 30999 ft 509 kts 94°
2026-04-30 14:02 39.89668 60.13055 31003 ft 509 kts 94°
2026-04-30 14:02 39.89574 60.22279 30998 ft 509 kts 95°
2026-04-30 14:03 39.88997 60.31414 30990 ft 503 kts 104°
2026-04-30 14:03 39.87335 60.40207 30998 ft 500 kts 109°
2026-04-30 14:04 39.85865 60.47488 30997 ft 500 kts 109°
2026-04-30 14:04 39.84119 60.56269 31000 ft 501 kts 109°
2026-04-30 14:05 39.82391 60.65061 31004 ft 502 kts 108°
2026-04-30 14:05 39.80382 60.75298 30989 ft 503 kts 108°
2026-04-30 14:06 39.78035 60.87157 31279 ft 508 kts 108°
2026-04-30 14:07 39.76270 60.96040 31880 ft 507 kts 108°
2026-04-30 14:07 39.75396 61.00422 32157 ft 507 kts 108°
2026-04-30 14:07 39.74509 61.04860 32401 ft 508 kts 108°
2026-04-30 14:08 39.72723 61.13768 32834 ft 510 kts 108°
2026-04-30 14:08 39.70017 61.27188 32966 ft 512 kts 108°
2026-04-30 14:09 39.68215 61.36096 32957 ft 508 kts 108°
2026-04-30 14:10 39.65509 61.49366 32964 ft 506 kts 108°
2026-04-30 14:10 39.63698 61.58189 32970 ft 506 kts 108°
2026-04-30 14:11 39.61885 61.66999 32961 ft 506 kts 108°
2026-04-30 14:11 39.60060 61.75822 32935 ft 507 kts 108°
2026-04-30 14:12 39.58227 61.84658 32912 ft 508 kts 108°
2026-04-30 14:12 39.56383 61.93495 32910 ft 508 kts 108°
2026-04-30 14:13 39.54532 62.02339 32906 ft 508 kts 108°
2026-04-30 14:13 39.52679 62.11162 32899 ft 508 kts 108°
2026-04-30 14:14 39.50822 62.19978 32885 ft 507 kts 108°
2026-04-30 14:14 39.48958 62.28788 32892 ft 507 kts 108°
2026-04-30 14:15 39.47085 62.37587 32892 ft 507 kts 108°
2026-04-30 14:15 39.45206 62.46381 32904 ft 507 kts 108°
2026-04-30 14:16 39.43330 62.55116 32905 ft 508 kts 108°
2026-04-30 14:16 39.41433 62.63926 32906 ft 509 kts 108°
2026-04-30 14:17 39.39526 62.72753 32899 ft 510 kts 108°
2026-04-30 14:17 39.37608 62.81591 32895 ft 511 kts 108°
2026-04-30 14:18 39.35681 62.90428 32901 ft 511 kts 108°
2026-04-30 14:18 39.32780 63.03667 32900 ft 510 kts 108°
2026-04-30 14:19 39.29870 63.16886 32886 ft 510 kts 108°
2026-04-30 14:20 39.27923 63.25680 32885 ft 509 kts 108°
2026-04-30 14:20 39.24992 63.38849 32884 ft 509 kts 109°
2026-04-30 14:21 39.23029 63.47613 32893 ft 508 kts 109°
2026-04-30 14:22 39.20079 63.60750 32893 ft 509 kts 109°
2026-04-30 14:22 39.17123 63.73830 32893 ft 509 kts 109°
2026-04-30 14:23 39.13141 63.91326 32879 ft 508 kts 109°
2026-04-30 14:24 39.10145 64.04406 32884 ft 507 kts 109°
2026-04-30 14:25 39.06216 64.21858 32881 ft 508 kts 107°
2026-04-30 14:26 39.03489 64.35026 32880 ft 508 kts 107°
2026-04-30 14:27 39.00716 64.48173 32885 ft 508 kts 107°
2026-04-30 14:27 38.98850 64.56942 32879 ft 509 kts 107°
2026-04-30 14:28 38.96032 64.70102 32881 ft 509 kts 107°
2026-04-30 14:28 38.94145 64.78869 32881 ft 509 kts 107°
2026-04-30 14:29 38.90679 64.94904 32878 ft 508 kts 108°
2026-04-30 14:31 38.85591 65.18193 32881 ft 508 kts 108°
2026-04-30 14:31 38.82702 65.31264 32878 ft 507 kts 108°
2026-04-30 14:32 38.79805 65.44308 32878 ft 507 kts 108°
2026-04-30 14:33 38.77867 65.52997 32879 ft 507 kts 108°
2026-04-30 14:33 38.74963 65.65963 32880 ft 507 kts 108°
2026-04-30 14:34 38.73011 65.74631 32885 ft 507 kts 108°
2026-04-30 14:34 38.71052 65.83297 32886 ft 507 kts 108°
2026-04-30 14:35 38.68092 65.96322 32876 ft 509 kts 108°
2026-04-30 14:36 38.66111 66.05013 32883 ft 509 kts 108°
2026-04-30 14:36 38.64123 66.13703 32882 ft 509 kts 108°
2026-04-30 14:37 38.61491 66.21999 32882 ft 501 kts 127°
2026-04-30 14:37 38.59287 66.25425 32885 ft 497 kts 138°
2026-04-30 14:37 38.56647 66.28224 32865 ft 491 kts 150°
2026-04-30 14:38 38.50815 66.32725 32876 ft 492 kts 152°
2026-04-30 14:38 38.44975 66.37343 32884 ft 495 kts 151°
2026-04-30 14:39 38.39138 66.42035 32888 ft 497 kts 150°
2026-04-30 14:39 38.33281 66.46748 32879 ft 498 kts 150°
2026-04-30 14:40 38.24478 66.53799 32871 ft 498 kts 150°
2026-04-30 14:40 38.18608 66.58486 32865 ft 497 kts 150°
2026-04-30 14:41 38.12763 66.63144 32868 ft 495 kts 151°
2026-04-30 14:41 38.06934 66.67782 32871 ft 494 kts 151°
2026-04-30 14:42 38.01110 66.72407 32867 ft 493 kts 151°
2026-04-30 14:42 37.95274 66.76975 32858 ft 494 kts 152°
2026-04-30 14:43 37.89433 66.81501 32862 ft 497 kts 152°
2026-04-30 14:43 37.83518 66.86092 32869 ft 501 kts 152°
2026-04-30 14:44 37.77558 66.90717 32876 ft 505 kts 152°
2026-04-30 14:44 37.71558 66.95363 32872 ft 507 kts 152°
2026-04-30 14:45 37.65541 67.00005 32868 ft 507 kts 152°
2026-04-30 14:45 37.59533 67.04634 32865 ft 506 kts 152°
2026-04-30 14:46 37.53533 67.09250 32859 ft 505 kts 152°
2026-04-30 14:46 37.48553 67.13084 32861 ft 504 kts 152°
2026-04-30 14:47 37.41544 67.18450 32857 ft 505 kts 152°
2026-04-30 14:47 37.35552 67.23047 32862 ft 505 kts 152°
2026-04-30 14:48 37.29533 67.27641 32861 ft 506 kts 152°
2026-04-30 14:48 37.23509 67.32235 32860 ft 507 kts 152°
2026-04-30 14:49 37.17449 67.36765 32859 ft 507 kts 154°
2026-04-30 14:49 37.11274 67.41026 32861 ft 507 kts 155°
2026-04-30 14:50 37.01975 67.47382 32859 ft 508 kts 155°
2026-04-30 14:51 36.92727 67.53793 32861 ft 510 kts 155°
2026-04-30 14:52 36.83390 67.60252 32862 ft 513 kts 155°
2026-04-30 14:52 36.74004 67.66712 32872 ft 514 kts 155°
2026-04-30 14:53 36.65402 67.71729 32883 ft 512 kts 162°
2026-04-30 14:54 36.52194 67.78589 32867 ft 516 kts 162°
2026-04-30 14:55 36.42259 67.83817 32875 ft 519 kts 162°
2026-04-30 14:56 36.28939 67.90815 32875 ft 521 kts 162°
2026-04-30 14:57 36.18930 67.96040 32870 ft 520 kts 162°
2026-04-30 14:58 36.05586 68.03002 32865 ft 520 kts 162°
2026-04-30 14:58 35.95591 68.08132 32879 ft 518 kts 162°
2026-04-30 15:00 35.78887 68.16834 32865 ft 522 kts 162°
2026-04-30 15:01 35.65543 68.23711 32862 ft 519 kts 163°
2026-04-30 15:01 35.55530 68.28814 32869 ft 520 kts 162°
2026-04-30 15:02 35.49020 68.32780 32859 ft 524 kts 155°
2026-04-30 15:03 35.32972 68.43554 32859 ft 529 kts 156°
2026-04-30 15:04 35.16726 68.54250 32836 ft 532 kts 156°
2026-04-30 15:06 35.00467 68.64984 32859 ft 531 kts 157°
2026-04-30 15:07 34.87445 68.73533 32841 ft 534 kts 157°
2026-04-30 15:08 34.74341 68.82091 32825 ft 537 kts 157°
2026-04-30 15:09 34.57872 68.92818 32849 ft 533 kts 158°
2026-04-30 15:10 34.44898 69.01567 32835 ft 540 kts 147°
2026-04-30 15:11 34.35813 69.16209 32828 ft 555 kts 118°
2026-04-30 15:11 34.32344 69.24589 32828 ft 559 kts 118°
2026-04-30 15:13 34.23261 69.45452 32835 ft 564 kts 120°
2026-04-30 15:14 34.10320 69.74727 32808 ft 564 kts 120°
2026-04-30 15:16 34.03044 69.96641 32831 ft 566 kts 101°
2026-04-30 15:17 33.99783 70.15206 32799 ft 569 kts 102°
2026-04-30 15:19 33.91253 70.51507 32800 ft 558 kts 126°
2026-04-30 17:39 17.38967 84.37150 34821 ft 524 kts 103°
2026-04-30 17:42 17.30111 84.74286 34831 ft 526 kts 102°
2026-04-30 17:43 17.25752 84.92810 34829 ft 526 kts 102°
2026-04-30 17:44 17.20481 85.15096 34818 ft 527 kts 103°
2026-04-30 17:46 17.14441 85.33046 34834 ft 527 kts 124°
2026-04-30 17:47 17.04714 85.44456 34830 ft 526 kts 134°
2026-04-30 17:48 16.87299 85.64134 34811 ft 527 kts 134°
2026-04-30 17:50 16.67493 85.86573 34832 ft 525 kts 134°
2026-04-30 17:52 16.52642 86.03350 34840 ft 524 kts 135°
2026-04-30 17:54 16.30397 86.28395 34844 ft 523 kts 135°
2026-04-30 17:56 16.10600 86.50610 34843 ft 523 kts 135°
2026-04-30 17:58 15.95772 86.67202 34845 ft 522 kts 135°
2026-04-30 18:00 15.76031 86.89239 34844 ft 519 kts 136°
2026-04-30 18:01 15.63757 87.02902 34843 ft 516 kts 136°
2026-04-30 18:02 15.49112 87.19173 34843 ft 515 kts 137°
2026-04-30 18:04 15.34467 87.35412 34852 ft 513 kts 137°
2026-04-30 18:06 15.15237 87.57263 34854 ft 510 kts 135°
2026-04-30 18:08 14.99647 87.75322 34862 ft 502 kts 135°
2026-04-30 18:10 14.80946 87.96875 34863 ft 505 kts 136°
2026-04-30 18:11 14.64491 88.15805 34859 ft 505 kts 136°
2026-04-30 18:13 14.52792 88.29231 34861 ft 504 kts 136°
2026-04-30 18:14 14.41088 88.42642 34862 ft 502 kts 136°
2026-04-30 18:15 14.27052 88.58693 34872 ft 502 kts 137°
2026-04-30 18:16 14.17689 88.69384 34872 ft 502 kts 137°
2026-04-30 18:17 14.13006 88.74725 34870 ft 502 kts 137°
2026-04-30 18:18 14.05972 88.82743 34870 ft 502 kts 137°
2026-04-30 18:18 14.01282 88.88081 34872 ft 502 kts 137°
2026-04-30 18:19 13.96593 88.93416 34874 ft 502 kts 136°
2026-04-30 18:19 13.91908 88.98745 34869 ft 502 kts 136°
2026-04-30 18:20 13.87225 89.04068 34869 ft 501 kts 136°
2026-04-30 18:20 13.82548 89.09383 34871 ft 500 kts 136°
2026-04-30 18:21 13.77870 89.14689 34869 ft 500 kts 136°
2026-04-30 18:21 13.73227 89.19953 34869 ft 500 kts 136°
2026-04-30 18:22 13.68560 89.25246 34871 ft 500 kts 136°
2026-04-30 18:22 13.61543 89.33188 34871 ft 500 kts 136°
2026-04-30 18:23 13.56872 89.38478 34870 ft 500 kts 136°
2026-04-30 18:23 13.52195 89.43771 34870 ft 500 kts 136°
2026-04-30 18:24 13.45173 89.51702 34872 ft 500 kts 136°
2026-04-30 18:25 13.40494 89.56989 34869 ft 500 kts 136°
2026-04-30 18:25 13.33475 89.64911 34876 ft 499 kts 136°
2026-04-30 18:26 13.26457 89.72818 34879 ft 500 kts 136°
2026-04-30 18:27 13.19429 89.80736 34876 ft 500 kts 136°
2026-04-30 18:28 13.12412 89.88635 34878 ft 499 kts 136°
2026-04-30 18:28 13.05398 89.96519 34887 ft 498 kts 136°
2026-04-30 18:29 12.96060 90.07009 34878 ft 497 kts 136°
2026-04-30 18:30 12.86772 90.17423 34883 ft 496 kts 136°
2026-04-30 18:31 12.79801 90.25234 34883 ft 494 kts 136°
2026-04-30 18:32 12.72837 90.33032 34882 ft 494 kts 136°
2026-04-30 18:33 12.65875 90.40819 34876 ft 494 kts 136°
2026-04-30 18:33 12.58916 90.48599 34881 ft 493 kts 136°
2026-04-30 18:34 12.51990 90.56329 34886 ft 494 kts 136°
2026-04-30 18:35 12.47347 90.61508 34876 ft 494 kts 136°
2026-04-30 18:35 12.42704 90.66687 34882 ft 494 kts 136°
2026-04-30 18:36 12.35735 90.74456 34883 ft 494 kts 136°
2026-04-30 18:37 12.28752 90.82229 34880 ft 494 kts 136°
2026-04-30 18:37 12.24100 90.87408 34878 ft 495 kts 136°
2026-04-30 18:38 12.19448 90.92580 34883 ft 494 kts 136°
2026-04-30 18:38 12.14789 90.97757 34890 ft 495 kts 136°
2026-04-30 18:39 12.10126 91.02939 34889 ft 495 kts 136°
2026-04-30 18:39 12.05493 91.08083 34890 ft 495 kts 136°
2026-04-30 18:40 12.00821 91.13264 34887 ft 495 kts 136°
2026-04-30 18:40 11.96157 91.18441 34890 ft 495 kts 136°
2026-04-30 18:41 11.91501 91.23606 34886 ft 494 kts 136°
2026-04-30 18:41 11.86848 91.28757 34888 ft 493 kts 136°
2026-04-30 18:42 11.82046 91.33723 34888 ft 490 kts 139°
2026-04-30 18:42 11.74685 91.40961 34890 ft 489 kts 139°
2026-04-30 18:45 11.47734 91.67683 34890 ft 493 kts 139°
2026-04-30 18:46 11.42818 91.72553 34887 ft 493 kts 139°
2026-04-30 18:46 11.37935 91.77387 34888 ft 492 kts 139°
2026-04-30 18:47 11.32930 91.82138 34887 ft 491 kts 142°
2026-04-30 18:47 11.27766 91.86677 34889 ft 490 kts 142°
2026-04-30 18:48 11.22584 91.91193 34888 ft 490 kts 142°
2026-04-30 18:48 11.17413 91.95727 34891 ft 490 kts 142°
2026-04-30 18:49 11.12253 92.00267 34890 ft 490 kts 142°
2026-04-30 18:49 11.07100 92.04806 34890 ft 489 kts 142°
2026-04-30 18:50 11.01956 92.09333 34887 ft 489 kts 142°
2026-04-30 18:50 10.96810 92.13858 34889 ft 488 kts 142°
2026-04-30 18:51 10.91674 92.18372 34887 ft 488 kts 142°
2026-04-30 18:51 10.86535 92.22890 34889 ft 488 kts 142°
2026-04-30 18:52 10.81402 92.27396 34888 ft 487 kts 142°
2026-04-30 18:52 10.76264 92.31906 34890 ft 488 kts 142°
2026-04-30 18:53 10.71157 92.36389 34889 ft 488 kts 142°
2026-04-30 18:53 10.66022 92.40894 34893 ft 488 kts 141°
2026-04-30 18:54 10.60879 92.45398 34885 ft 488 kts 141°
2026-04-30 18:54 10.56570 92.49177 34891 ft 488 kts 142°
2026-04-30 18:55 10.51427 92.53682 34889 ft 488 kts 141°
2026-04-30 18:55 10.43752 92.60398 34889 ft 487 kts 141°
2026-04-30 18:56 10.36039 92.67144 34890 ft 487 kts 141°
2026-04-30 18:57 10.28336 92.73881 34889 ft 487 kts 141°
2026-04-30 18:57 10.23200 92.78366 34889 ft 487 kts 141°
2026-04-30 18:58 10.15501 92.85089 34888 ft 486 kts 141°
2026-04-30 18:59 10.07810 92.91800 34889 ft 486 kts 141°
2026-04-30 19:00 9.97556 93.00740 34888 ft 485 kts 141°
2026-04-30 19:01 9.87340 93.09643 34880 ft 483 kts 141°
2026-04-30 19:02 9.79693 93.16301 34879 ft 483 kts 141°
2026-04-30 19:03 9.69506 93.25158 34876 ft 482 kts 141°
2026-04-30 19:04 9.59334 93.34003 34881 ft 482 kts 141°
2026-04-30 19:05 9.49187 93.42817 34876 ft 482 kts 141°
2026-04-30 19:06 9.38997 93.51657 34861 ft 482 kts 141°
2026-04-30 19:06 9.31358 93.58281 34859 ft 482 kts 141°
2026-04-30 19:07 9.23726 93.64894 34859 ft 481 kts 141°
2026-04-30 19:08 9.13554 93.73707 34860 ft 481 kts 141°
2026-04-30 19:09 9.05927 93.80308 34862 ft 481 kts 141°
2026-04-30 19:09 9.00847 93.84700 34860 ft 480 kts 141°
2026-04-30 19:10 8.90680 93.93493 34861 ft 481 kts 141°
2026-04-30 19:11 8.83380 94.00441 34863 ft 482 kts 131°
2026-04-30 19:12 8.79512 94.05972 34865 ft 483 kts 123°
2026-04-30 19:12 8.76001 94.11755 34862 ft 482 kts 123°
2026-04-30 19:13 8.68943 94.23228 34861 ft 482 kts 123°
2026-04-30 19:14 8.65389 94.28966 34858 ft 481 kts 123°
2026-04-30 19:14 8.61836 94.34700 34863 ft 481 kts 123°
2026-04-30 19:15 8.58289 94.40426 34860 ft 481 kts 123°
2026-04-30 19:15 8.53465 94.49324 34866 ft 481 kts 119°
2026-04-30 19:16 8.50367 94.55321 34861 ft 482 kts 119°
2026-04-30 19:17 8.45687 94.64315 34863 ft 482 kts 119°
2026-04-30 19:17 8.40982 94.73307 34862 ft 483 kts 119°
2026-04-30 19:18 8.36279 94.82305 34861 ft 483 kts 119°
2026-04-30 19:19 8.33141 94.88296 34860 ft 482 kts 119°
2026-04-30 19:19 8.28438 94.97268 34872 ft 482 kts 119°
2026-04-30 19:20 8.25304 95.03252 34869 ft 482 kts 119°
2026-04-30 19:21 8.20625 95.12177 34871 ft 481 kts 119°
2026-04-30 19:22 8.14357 95.24124 34872 ft 482 kts 119°
2026-04-30 19:23 8.04956 95.42020 34882 ft 481 kts 119°
2026-04-30 19:24 8.00262 95.50948 34877 ft 479 kts 119°
2026-04-30 19:25 7.92430 95.65764 34876 ft 477 kts 118°
2026-04-30 19:26 7.86181 95.77579 34877 ft 477 kts 118°
2026-04-30 19:27 7.81513 95.86400 34884 ft 478 kts 118°
2026-04-30 19:28 7.76818 95.95264 34878 ft 478 kts 119°
2026-04-30 19:29 7.70548 96.07103 34879 ft 479 kts 118°
2026-04-30 19:30 7.64270 96.18935 34876 ft 478 kts 118°
2026-04-30 19:31 7.58002 96.30747 34884 ft 478 kts 118°
2026-04-30 19:31 7.53295 96.39606 34883 ft 478 kts 118°
2026-04-30 19:32 7.50156 96.45512 34881 ft 478 kts 118°
2026-04-30 19:32 7.47019 96.51417 34877 ft 478 kts 118°
2026-04-30 19:33 7.43896 96.57289 34883 ft 479 kts 118°
2026-04-30 19:33 7.40751 96.63201 34883 ft 479 kts 118°
2026-04-30 19:34 7.37603 96.69116 34882 ft 479 kts 118°
2026-04-30 19:35 7.32883 96.77980 34875 ft 479 kts 118°
2026-04-30 19:35 7.29736 96.83889 34874 ft 478 kts 118°
2026-04-30 19:36 7.27077 96.90017 34887 ft 478 kts 108°
2026-04-30 19:36 7.24643 96.99768 34887 ft 479 kts 104°
2026-04-30 19:37 7.23081 97.06290 34877 ft 480 kts 104°
2026-04-30 19:37 7.21490 97.12822 34883 ft 480 kts 104°
2026-04-30 19:38 7.19885 97.19356 34875 ft 481 kts 104°
2026-04-30 19:38 7.18272 97.25906 34881 ft 482 kts 104°
2026-04-30 19:39 7.16663 97.32454 34884 ft 481 kts 104°
2026-04-30 19:39 7.15052 97.39002 34876 ft 482 kts 104°
2026-04-30 19:40 7.13452 97.45507 34877 ft 482 kts 104°
2026-04-30 19:40 7.12102 97.50998 34883 ft 482 kts 104°
2026-04-30 19:41 7.10226 97.58607 34890 ft 482 kts 104°
2026-04-30 19:41 7.08872 97.64091 34889 ft 482 kts 104°
2026-04-30 19:42 7.07257 97.70632 34890 ft 482 kts 104°
2026-04-30 19:42 7.05638 97.77185 34889 ft 482 kts 104°
2026-04-30 19:43 7.04020 97.83736 34889 ft 482 kts 104°
2026-04-30 19:44 7.01593 97.93558 34888 ft 482 kts 104°
2026-04-30 19:44 6.99949 98.00094 34891 ft 481 kts 106°
2026-04-30 19:45 6.97714 98.06443 34881 ft 482 kts 110°
2026-04-30 19:45 6.95342 98.12751 34880 ft 482 kts 110°
2026-04-30 19:46 6.92982 98.19079 34880 ft 483 kts 110°
2026-04-30 19:46 6.90643 98.25418 34880 ft 484 kts 110°
2026-04-30 19:47 6.88305 98.31769 34875 ft 484 kts 110°
2026-04-30 19:47 6.85968 98.38120 34885 ft 484 kts 110°
2026-04-30 19:48 6.83645 98.44427 34888 ft 484 kts 110°
2026-04-30 19:48 6.81306 98.50773 34883 ft 483 kts 110°
2026-04-30 19:49 6.78965 98.57110 34868 ft 483 kts 110°
2026-04-30 19:49 6.75451 98.66624 34870 ft 483 kts 110°
2026-04-30 19:50 6.73111 98.72962 34871 ft 483 kts 110°
2026-04-30 19:50 6.70773 98.79298 34872 ft 483 kts 110°
2026-04-30 19:51 6.68429 98.85635 34870 ft 483 kts 110°
2026-04-30 19:51 6.66086 98.91968 34883 ft 483 kts 110°
2026-04-30 19:52 6.63740 98.98309 34876 ft 483 kts 110°
2026-04-30 19:52 6.61396 99.04645 34884 ft 483 kts 110°
2026-04-30 19:53 6.59048 99.10982 34880 ft 484 kts 110°
2026-04-30 19:53 6.56700 99.17323 34877 ft 484 kts 110°
2026-04-30 19:54 6.54365 99.23622 34881 ft 484 kts 110°
2026-04-30 19:54 6.51999 99.30008 34875 ft 484 kts 110°
2026-04-30 19:55 6.49648 99.36346 34876 ft 484 kts 110°
2026-04-30 19:55 6.47286 99.42681 34884 ft 484 kts 110°
2026-04-30 19:56 6.44935 99.48971 34879 ft 484 kts 110°
2026-04-30 19:56 6.42571 99.55300 34888 ft 483 kts 110°
2026-04-30 19:57 6.40208 99.61628 34889 ft 483 kts 110°
2026-04-30 19:57 6.37844 99.67960 34892 ft 484 kts 110°
2026-04-30 19:58 6.34798 99.73956 34887 ft 484 kts 126°
2026-04-30 19:58 6.30093 99.78778 34889 ft 485 kts 142°
2026-04-30 19:59 6.24677 99.82829 34895 ft 486 kts 142°
2026-04-30 20:00 6.16569 99.88955 34890 ft 486 kts 142°
2026-04-30 20:00 6.11193 99.93088 34889 ft 487 kts 141°
2026-04-30 20:01 6.03114 99.99297 34891 ft 488 kts 142°
2026-04-30 20:01 5.97701 100.03412 34888 ft 488 kts 142°
2026-04-30 20:02 5.89571 100.09540 34886 ft 487 kts 142°
2026-04-30 20:03 5.81458 100.15678 34888 ft 486 kts 142°
2026-04-30 20:03 5.76100 100.19736 34887 ft 486 kts 142°
2026-04-30 20:04 5.70705 100.23823 34890 ft 486 kts 142°
2026-04-30 20:05 5.62619 100.29948 34887 ft 486 kts 142°
2026-04-30 20:05 5.54521 100.36068 34888 ft 486 kts 142°
2026-04-30 20:06 5.49121 100.40151 34890 ft 486 kts 142°
2026-04-30 20:06 5.43719 100.44238 34889 ft 486 kts 142°
2026-04-30 20:07 5.38308 100.48330 34888 ft 487 kts 142°
2026-04-30 20:08 5.30186 100.54468 34874 ft 487 kts 142°
2026-04-30 20:08 5.24772 100.58555 34885 ft 487 kts 142°
2026-04-30 20:09 5.19361 100.62647 34876 ft 486 kts 142°
2026-04-30 20:09 5.11257 100.68766 34877 ft 486 kts 142°
2026-04-30 20:10 5.03148 100.74889 34880 ft 486 kts 142°
2026-04-30 20:11 4.95053 100.81000 34880 ft 485 kts 142°
2026-04-30 20:11 4.89656 100.85072 34883 ft 485 kts 142°
2026-04-30 20:12 4.81560 100.91177 34876 ft 486 kts 142°
2026-04-30 20:13 4.76164 100.95249 34877 ft 485 kts 142°
2026-04-30 20:13 4.70808 100.99289 34877 ft 485 kts 142°
2026-04-30 20:14 4.65381 101.03381 34880 ft 485 kts 142°
2026-04-30 20:14 4.59925 101.07376 34882 ft 486 kts 147°
2026-04-30 20:15 4.53923 101.10382 34891 ft 487 kts 158°
2026-04-30 20:15 4.47442 101.12400 34895 ft 488 kts 163°
2026-04-30 20:16 4.40890 101.14240 34882 ft 489 kts 163°
2026-04-30 20:16 4.34345 101.16108 34881 ft 489 kts 162°
2026-04-30 20:17 4.27806 101.18005 34876 ft 489 kts 162°
2026-04-30 20:17 4.21281 101.19906 34887 ft 489 kts 162°
2026-04-30 20:18 4.14745 101.21809 34876 ft 489 kts 162°
2026-04-30 20:18 4.08219 101.23709 34879 ft 489 kts 162°
2026-04-30 20:19 4.01686 101.25611 34879 ft 489 kts 162°
2026-04-30 20:19 3.95149 101.27512 34873 ft 489 kts 162°
2026-04-30 20:20 3.88610 101.29412 34859 ft 489 kts 162°
2026-04-30 20:20 3.82072 101.31313 34862 ft 489 kts 162°
2026-04-30 20:21 3.75550 101.33231 34859 ft 488 kts 162°
2026-04-30 20:21 3.69044 101.35181 34862 ft 488 kts 162°
2026-04-30 20:22 3.62541 101.37128 34860 ft 487 kts 162°
2026-04-30 20:22 3.56047 101.39070 34861 ft 487 kts 162°
2026-04-30 20:23 3.49557 101.41008 34860 ft 486 kts 162°
2026-04-30 20:23 3.43071 101.42944 34862 ft 486 kts 162°
2026-04-30 20:24 3.36620 101.44870 34861 ft 486 kts 162°
2026-04-30 20:24 3.30228 101.47047 34861 ft 485 kts 154°
2026-04-30 20:25 3.21073 101.51326 34859 ft 485 kts 153°
2026-04-30 20:26 3.11903 101.55597 34860 ft 484 kts 154°
2026-04-30 20:26 3.03751 101.59353 34861 ft 485 kts 154°
2026-04-30 20:27 2.91508 101.64993 34861 ft 484 kts 154°
2026-04-30 20:28 2.79290 101.70624 34862 ft 483 kts 154°
2026-04-30 20:30 2.64147 101.77806 34859 ft 481 kts 152°
2026-04-30 20:31 2.48454 101.89655 34875 ft 475 kts 126°
2026-04-30 20:32 2.38608 102.02962 34875 ft 476 kts 126°
2026-04-30 20:33 2.32629 102.10906 34876 ft 476 kts 126°
2026-04-30 20:34 2.26672 102.18819 34877 ft 477 kts 126°
2026-04-30 20:35 2.20691 102.26769 34889 ft 477 kts 126°
2026-04-30 20:35 2.14709 102.34712 34888 ft 477 kts 126°
2026-04-30 20:36 2.10723 102.40007 34885 ft 477 kts 126°
2026-04-30 20:37 2.04735 102.47964 34881 ft 477 kts 126°
2026-04-30 20:37 2.00743 102.53265 34878 ft 477 kts 126°
2026-04-30 20:38 1.96773 102.58545 34887 ft 477 kts 126°
2026-04-30 20:38 1.92781 102.63844 34875 ft 477 kts 126°
2026-04-30 20:39 1.86797 102.71793 34874 ft 477 kts 126°
2026-04-30 20:40 1.80824 102.79733 34870 ft 476 kts 126°
2026-04-30 20:40 1.76841 102.85024 34870 ft 476 kts 126°
2026-04-30 20:41 1.71409 102.93311 34874 ft 475 kts 117°
2026-04-30 20:41 1.68357 102.99158 34868 ft 475 kts 117°
2026-04-30 20:42 1.65255 103.04990 34861 ft 475 kts 117°
2026-04-30 20:42 1.61767 103.10582 34856 ft 476 kts 129°
2026-04-30 20:43 1.59497 103.12993 34871 ft 476 kts 136°
2026-04-30 20:43 1.54184 103.16961 34865 ft 479 kts 146°
2026-04-30 20:44 1.45796 103.22330 34861 ft 479 kts 146°
2026-04-30 20:45 1.34642 103.29645 34867 ft 479 kts 145°
2026-04-30 20:45 1.29066 103.33313 34862 ft 479 kts 145°
2026-04-30 20:46 1.17960 103.40660 34871 ft 478 kts 145°
2026-04-30 20:47 1.09651 103.46180 34870 ft 478 kts 145°
2026-04-30 20:48 1.01753 103.52195 34856 ft 475 kts 133°
2026-04-30 20:48 0.97194 103.56963 34874 ft 474 kts 133°
2026-04-30 20:49 0.92644 103.61724 34883 ft 473 kts 133°
2026-04-30 20:50 0.85816 103.68797 34876 ft 473 kts 133°
2026-04-30 20:50 0.81244 103.73520 34881 ft 473 kts 133°
2026-04-30 20:51 0.76673 103.78243 34881 ft 472 kts 133°
2026-04-30 20:51 0.69817 103.85327 34886 ft 473 kts 133°
2026-04-30 20:52 0.65248 103.90048 34876 ft 473 kts 133°
2026-04-30 20:53 0.58399 103.97130 34886 ft 472 kts 133°
2026-04-30 20:53 0.53835 104.01840 34875 ft 472 kts 133°
2026-04-30 20:54 0.46993 104.08895 34869 ft 471 kts 133°
2026-04-30 20:55 0.40160 104.15944 34880 ft 470 kts 133°
2026-04-30 20:55 0.35459 104.20478 34872 ft 471 kts 140°
2026-04-30 20:56 0.27015 104.25412 34885 ft 473 kts 154°
2026-04-30 20:57 0.17897 104.29241 34877 ft 475 kts 155°
2026-04-30 20:57 0.11808 104.31815 34882 ft 475 kts 155°
2026-04-30 20:58 0.02699 104.35717 34877 ft 475 kts 155°
2026-04-30 20:58 -0.03381 104.38328 34884 ft 476 kts 154°
2026-04-30 20:59 -0.12508 104.42245 34877 ft 476 kts 154°
2026-04-30 21:00 -0.24675 104.47463 34883 ft 476 kts 154°
2026-04-30 21:01 -0.33805 104.51382 34888 ft 476 kts 154°
2026-04-30 21:02 -0.42944 104.55301 34877 ft 476 kts 154°
2026-04-30 21:02 -0.49037 104.57912 34877 ft 477 kts 155°
2026-04-30 21:03 -0.55190 104.60398 34881 ft 477 kts 156°
2026-04-30 21:03 -0.61376 104.62825 34876 ft 477 kts 156°
2026-04-30 21:04 -0.67549 104.65258 34876 ft 477 kts 156°
2026-04-30 21:04 -0.76756 104.68918 34870 ft 477 kts 156°
2026-04-30 21:05 -0.82927 104.71376 34873 ft 478 kts 156°
2026-04-30 21:05 -0.89111 104.73837 34866 ft 480 kts 156°
2026-04-30 21:06 -0.95325 104.76312 34877 ft 482 kts 156°
2026-04-30 21:06 -1.01573 104.78798 34874 ft 485 kts 156°
2026-04-30 21:07 -1.07851 104.81297 34872 ft 486 kts 156°
2026-04-30 21:07 -1.14144 104.83801 34870 ft 487 kts 156°
2026-04-30 21:08 -1.20439 104.86307 34869 ft 487 kts 156°
2026-04-30 21:08 -1.26732 104.88812 34869 ft 486 kts 155°
2026-04-30 21:09 -1.33008 104.91310 34872 ft 485 kts 155°
2026-04-30 21:09 -1.39277 104.93806 34870 ft 485 kts 155°
2026-04-30 21:10 -1.45539 104.96299 34871 ft 484 kts 155°
2026-04-30 21:10 -1.51789 104.98788 34869 ft 483 kts 155°
2026-04-30 21:11 -1.58032 105.01275 34871 ft 483 kts 155°
2026-04-30 21:11 -1.64283 105.03764 34871 ft 484 kts 155°
2026-04-30 21:12 -1.70535 105.06252 34868 ft 484 kts 155°
2026-04-30 21:12 -1.76792 105.08746 34861 ft 484 kts 155°
2026-04-30 21:13 -1.83061 105.11243 34862 ft 485 kts 155°
2026-04-30 21:13 -1.89328 105.13739 34861 ft 485 kts 155°
2026-04-30 21:14 -1.94540 105.15816 34863 ft 485 kts 155°
2026-04-30 21:14 -2.00812 105.18316 34863 ft 486 kts 155°
2026-04-30 21:15 -2.08112 105.21224 34886 ft 486 kts 155°
2026-04-30 21:15 -2.13372 105.23319 34885 ft 486 kts 155°
2026-04-30 21:16 -2.19648 105.25820 34888 ft 485 kts 155°
2026-04-30 21:16 -2.25917 105.28319 34891 ft 485 kts 155°
2026-04-30 21:17 -2.32180 105.30817 34888 ft 485 kts 155°
2026-04-30 21:17 -2.38443 105.33314 34889 ft 485 kts 155°
2026-04-30 21:18 -2.44670 105.35798 34889 ft 485 kts 155°
2026-04-30 21:18 -2.50937 105.38295 34887 ft 485 kts 155°
2026-04-30 21:19 -2.57178 105.40854 34889 ft 484 kts 154°
2026-04-30 21:19 -2.63376 105.43498 34890 ft 484 kts 154°
2026-04-30 21:20 -2.69577 105.46146 34889 ft 484 kts 154°
2026-04-30 21:20 -2.75782 105.48783 34890 ft 485 kts 154°
2026-04-30 21:21 -2.81997 105.51413 34888 ft 485 kts 154°
2026-04-30 21:22 -2.91321 105.55364 34888 ft 485 kts 154°
2026-04-30 21:23 -3.03758 105.60631 34878 ft 485 kts 154°
2026-04-30 21:23 -3.13086 105.64584 34881 ft 485 kts 154°
2026-04-30 21:24 -3.19260 105.67202 34883 ft 485 kts 154°
2026-04-30 21:24 -3.25473 105.69834 34886 ft 485 kts 154°
2026-04-30 21:25 -3.34799 105.73788 34877 ft 485 kts 154°
2026-04-30 21:26 -3.44119 105.77741 34883 ft 485 kts 155°
2026-04-30 21:27 -3.53446 105.81695 34882 ft 485 kts 155°
2026-04-30 21:27 -3.59660 105.84334 34871 ft 485 kts 155°
2026-04-30 21:28 -3.68947 105.88275 34869 ft 485 kts 155°
2026-04-30 21:29 -3.78275 105.92232 34870 ft 486 kts 155°
2026-04-30 21:30 -3.93849 105.98844 34870 ft 486 kts 155°
2026-04-30 21:31 -4.08913 106.06282 34870 ft 481 kts 141°
2026-04-30 21:32 -4.16923 106.12339 34873 ft 481 kts 141°
2026-04-30 21:32 -4.22248 106.16259 34853 ft 464 kts 142°
2026-04-30 21:33 -4.24852 106.18143 34494 ft 459 kts 142°
2026-04-30 21:33 -4.30003 106.21846 33566 ft 452 kts 142°
2026-04-30 21:33 -4.32547 106.23675 33087 ft 449 kts 142°
2026-04-30 21:34 -4.35075 106.25494 32609 ft 446 kts 142°
2026-04-30 21:34 -4.40080 106.29099 31662 ft 439 kts 142°
2026-04-30 21:34 -4.42551 106.30879 31191 ft 436 kts 143°
2026-04-30 21:35 -4.45006 106.32648 30722 ft 433 kts 143°
2026-04-30 21:35 -4.47448 106.34408 30254 ft 430 kts 143°
2026-04-30 21:35 -4.49868 106.36152 29789 ft 428 kts 143°
2026-04-30 21:35 -4.52276 106.37888 29335 ft 425 kts 143°
2026-04-30 21:36 -4.54665 106.39609 28847 ft 421 kts 143°
2026-04-30 21:36 -4.57007 106.41296 28382 ft 418 kts 143°
2026-04-30 21:37 -4.64024 106.46354 26986 ft 410 kts 142°
2026-04-30 21:37 -4.66333 106.48019 26522 ft 408 kts 142°
2026-04-30 21:37 -4.68629 106.49677 26049 ft 405 kts 142°
2026-04-30 21:37 -4.70913 106.51324 25607 ft 403 kts 142°
2026-04-30 21:38 -4.73177 106.52958 25155 ft 400 kts 142°
2026-04-30 21:38 -4.75430 106.54583 24702 ft 398 kts 142°
2026-04-30 21:38 -4.77670 106.56200 24252 ft 396 kts 142°
2026-04-30 21:38 -4.79899 106.57810 23804 ft 393 kts 142°
2026-04-30 21:39 -4.82114 106.59407 23363 ft 391 kts 142°
2026-04-30 21:39 -4.84318 106.60995 22921 ft 389 kts 142°
2026-04-30 21:39 -4.86527 106.62552 22474 ft 387 kts 146°
2026-04-30 21:39 -4.88894 106.63829 22041 ft 386 kts 153°
2026-04-30 21:40 -4.91341 106.64919 21621 ft 384 kts 154°
2026-04-30 21:40 -4.93801 106.65961 21164 ft 382 kts 155°
2026-04-30 21:40 -4.96241 106.67006 20732 ft 380 kts 154°
2026-04-30 21:40 -4.98654 106.68067 20297 ft 378 kts 154°
2026-04-30 21:41 -5.01047 106.69139 19883 ft 375 kts 153°
2026-04-30 21:41 -5.03415 106.70210 19461 ft 373 kts 153°
2026-04-30 21:41 -5.05770 106.71283 19036 ft 370 kts 153°
2026-04-30 21:41 -5.08105 106.72351 18609 ft 368 kts 153°
2026-04-30 21:42 -5.10430 106.73416 18184 ft 366 kts 153°
2026-04-30 21:42 -5.12741 106.74474 17756 ft 364 kts 153°
2026-04-30 21:42 -5.15038 106.75525 17333 ft 362 kts 153°
2026-04-30 21:42 -5.17329 106.76572 16907 ft 360 kts 154°
2026-04-30 21:43 -5.19576 106.77593 16475 ft 359 kts 154°
2026-04-30 21:43 -5.21843 106.78618 16043 ft 357 kts 154°
2026-04-30 21:43 -5.24106 106.79641 15609 ft 355 kts 154°
2026-04-30 21:43 -5.26349 106.80656 15173 ft 353 kts 154°
2026-04-30 21:44 -5.28586 106.81669 14747 ft 352 kts 154°
2026-04-30 21:44 -5.30812 106.82677 14318 ft 350 kts 154°
2026-04-30 21:44 -5.33026 106.83680 13892 ft 348 kts 155°
2026-04-30 21:44 -5.35230 106.84679 13469 ft 347 kts 155°
2026-04-30 21:45 -5.37420 106.85673 13048 ft 345 kts 155°
2026-04-30 21:45 -5.39599 106.86660 12631 ft 343 kts 155°
2026-04-30 21:45 -5.41766 106.87641 12232 ft 341 kts 155°
2026-04-30 21:45 -5.43919 106.88616 11837 ft 338 kts 155°
2026-04-30 21:46 -5.46050 106.89581 11500 ft 333 kts 156°
2026-04-30 21:46 -5.48233 106.90218 11153 ft 320 kts 176°
2026-04-30 21:46 -5.50368 106.90201 10863 ft 296 kts 181°
2026-04-30 21:46 -5.52383 106.90140 10389 ft 282 kts 181°
2026-04-30 21:47 -5.54297 106.90094 10040 ft 273 kts 181°
2026-04-30 21:47 -5.56223 106.90053 9730 ft 280 kts 181°
2026-04-30 21:47 -5.58184 106.90017 9402 ft 283 kts 181°
2026-04-30 21:47 -5.60147 106.89981 9078 ft 282 kts 181°
2026-04-30 21:48 -5.62097 106.89951 8783 ft 279 kts 181°
2026-04-30 21:48 -5.64025 106.89922 8495 ft 276 kts 181°
2026-04-30 21:48 -5.65933 106.89893 8189 ft 273 kts 181°
2026-04-30 21:48 -5.67824 106.89865 7916 ft 270 kts 181°
2026-04-30 21:49 -5.69695 106.89838 7629 ft 268 kts 181°
2026-04-30 21:49 -5.71551 106.89811 7321 ft 266 kts 181°
2026-04-30 21:49 -5.73395 106.89775 7018 ft 264 kts 181°
2026-04-30 21:49 -5.75224 106.89734 6728 ft 262 kts 181°
2026-04-30 21:50 -5.77049 106.89695 6433 ft 263 kts 181°
2026-04-30 21:50 -5.78878 106.89657 6137 ft 263 kts 181°
2026-04-30 21:50 -5.80706 106.89619 5827 ft 262 kts 181°
2026-04-30 21:50 -5.82531 106.89579 5511 ft 261 kts 181°
2026-04-30 21:51 -5.84339 106.89541 5202 ft 260 kts 181°
2026-04-30 21:51 -5.86140 106.89504 4923 ft 257 kts 181°
2026-04-30 21:51 -5.87925 106.89466 4642 ft 255 kts 181°
2026-04-30 21:51 -5.89697 106.89430 4348 ft 254 kts 181°
2026-04-30 21:52 -5.91451 106.89392 4062 ft 251 kts 181°
2026-04-30 21:52 -5.93189 106.89358 3791 ft 249 kts 181°
2026-04-30 21:52 -5.94893 106.89325 3487 ft 247 kts 181°
2026-04-30 21:52 -5.96562 106.89071 3189 ft 240 kts 195°
2026-04-30 21:53 -5.98145 106.88593 2995 ft 233 kts 197°
2026-04-30 21:53 -5.99526 106.87841 2826 ft 222 kts 219°
2026-04-30 21:53 -6.00676 106.86797 2718 ft 226 kts 220°
2026-04-30 21:53 -6.01848 106.85733 2513 ft 227 kts 220°
2026-04-30 21:54 -6.03013 106.84680 2348 ft 224 kts 220°
2026-04-30 21:54 -6.04065 106.83571 2162 ft 217 kts 238°
2026-04-30 21:54 -6.04731 106.82237 2149 ft 211 kts 244°
2026-04-30 21:54 -6.05308 106.80908 2095 ft 205 kts 246°
2026-04-30 21:55 -6.05836 106.79598 2035 ft 201 kts 246°
2026-04-30 21:55 -6.06355 106.78296 2011 ft 200 kts 246°
2026-04-30 21:55 -6.06873 106.77001 2006 ft 198 kts 246°
2026-04-30 21:55 -6.07372 106.75742 1921 ft 195 kts 246°
2026-04-30 21:56 -6.07870 106.74496 1673 ft 186 kts 247°
2026-04-30 21:56 -6.08331 106.73332 1414 ft 171 kts 247°
2026-04-30 21:56 -6.08749 106.72285 1207 ft 155 kts 247°
2026-04-30 21:56 -6.09152 106.71275 1006 ft 156 kts 247°
2026-04-30 21:57 -6.09552 106.70268 796 ft 154 kts 247°
2026-04-30 21:57 -6.09952 106.69277 611 ft 153 kts 248°
2026-04-30 21:57 -6.10344 106.68276 389 ft 152 kts 247°
2026-04-30 21:57 -6.10744 106.67294 191 ft 151 kts 246°
2026-04-30 21:58 -6.11137 106.66316 53 ft 145 kts 249°
2026-04-30 21:58 -6.11465 106.65483 44 ft 108 kts 248°
2026-04-30 21:58 -6.11686 106.64920 48 ft 64 kts 248°
2026-04-30 21:58 -6.11828 106.64709 47 ft 17 kts 221°
2026-04-30 21:59 -6.11902 106.64653 46 ft 13 kts 201°
2026-04-30 21:59 -6.11991 106.64669 44 ft 14 kts 159°
2026-04-30 21:59 -6.12080 106.64702 43 ft 14 kts 160°
2026-04-30 22:00 -6.12193 106.64818 43 ft 14 kts 72°
2026-04-30 22:00 -6.12112 106.64991 43 ft 14 kts 32°
2026-04-30 22:00 -6.12010 106.65018 43 ft 16 kts 10°
2026-04-30 22:01 -6.11921 106.65072 43 ft 16 kts 62°
2026-04-30 22:01 -6.11878 106.65175 43 ft 16 kts 68°
2026-04-30 22:01 -6.11837 106.65278 43 ft 16 kts 68°
2026-04-30 22:01 -6.11810 106.65347 43 ft 16 kts 68°
2026-04-30 22:02 -6.11768 106.65450 43 ft 16 kts 68°
2026-04-30 22:02 -6.11727 106.65552 43 ft 13 kts 70°
2026-04-30 22:02 -6.11758 106.65615 43 ft 11 kts 150°
2026-04-30 22:02 -6.11785 106.65647 43 ft 3 kts 95°
2026-04-30 22:03 -6.11774 106.65675 43 ft 2 kts 67°
2026-04-30 22:03 -6.11768 106.65691 43 ft 3 kts 67°
2026-04-30 22:03 -6.11767 106.65693 43 ft 0 kts 67°